| time (UTC) | temp F | wind direction | speed MPH | gust MPH | rain 1hr in | rain 24hr in | rain mn in | humidity % | barometer mb |
| 20260904181946 | 78 | 314 | 0.0 | 0.0 | 0.00 | 0.07 | 0.07 | 88 | 1006.6 |
| 20260904181845 | 78 | 314 | 0.0 | 0.0 | 0.00 | 0.07 | 0.07 | 88 | 1006.7 |
| 20260904181745 | 78 | 314 | 0.0 | 0.0 | 0.00 | 0.07 | 0.07 | 88 | 1006.6 |
| 20260904181645 | 78 | 314 | 0.0 | 0.0 | 0.00 | 0.07 | 0.07 | 88 | 1006.7 |
| 20260904181545 | 78 | 314 | 0.0 | 2.0 | 0.00 | 0.07 | 0.07 | 88 | 1006.7 |
| 20260904181443 | 78 | 314 | 0.0 | 2.0 | 0.00 | 0.07 | 0.07 | 88 | 1006.6 |
| 20260904181346 | 78 | 314 | 0.0 | 2.0 | 0.00 | 0.07 | 0.07 | 88 | 1006.6 |
| 20260904181244 | 78 | 314 | 0.0 | 2.0 | 0.00 | 0.07 | 0.07 | 88 | 1006.6 |
| 20260904181145 | 78 | 314 | 0.0 | 2.0 | 0.00 | 0.07 | 0.07 | 88 | 1006.7 |
| 20260904181042 | 78 | 314 | 0.0 | 2.0 | 0.00 | 0.07 | 0.07 | 88 | 1006.7 |
| 20260904180945 | 78 | 314 | 0.0 | 2.0 | 0.00 | 0.07 | 0.07 | 88 | 1006.7 |
| 20260904180844 | 78 | 314 | 0.0 | 2.0 | 0.00 | 0.07 | 0.07 | 88 | 1006.7 |
| 20260904180745 | 78 | 314 | 0.0 | 2.0 | 0.00 | 0.07 | 0.07 | 88 | 1006.8 |
| 20260904180642 | 78 | 314 | 0.0 | 2.0 | 0.01 | 0.07 | 0.07 | 88 | 1006.8 |
| 20260904180544 | 78 | 120 | 0.0 | 1.0 | 0.01 | 0.07 | 0.07 | 88 | 1006.8 |
| 20260904180445 | 78 | 120 | 0.0 | 1.0 | 0.02 | 0.07 | 0.07 | 88 | 1006.8 |
| 20260904180335 | 78 | 120 | 0.0 | 1.0 | 0.03 | 0.07 | 0.07 | 88 | 1006.9 |
| 20260904180231 | 78 | 120 | 0.0 | 1.0 | 0.03 | 0.07 | 0.07 | 88 | 1006.8 |
| 20260904180131 | 78 | 120 | 0.0 | 1.0 | 0.03 | 0.07 | 0.07 | 88 | 1006.8 |
| 20260904180032 | 78 | 120 | 0.0 | 1.0 | 0.03 | 0.07 | 0.07 | 88 | 1006.9 |
| 20260904175933 | 79 | 120 | 0.0 | 1.0 | 0.03 | 0.04 | 0.07 | 88 | 1006.9 |
| 20260904175833 | 79 | 120 | 0.0 | 1.0 | 0.03 | 0.04 | 0.07 | 88 | 1006.9 |
| 20260904175733 | 79 | 120 | 0.0 | 1.0 | 0.03 | 0.04 | 0.07 | 88 | 1006.9 |
| 20260904175632 | 79 | 120 | 0.0 | 1.0 | 0.03 | 0.04 | 0.07 | 88 | 1006.8 |
| 20260904175532 | 79 | 131 | 0.0 | 0.0 | 0.04 | 0.04 | 0.07 | 88 | 1006.9 |
| 20260904175432 | 79 | 131 | 0.0 | 0.0 | 0.04 | 0.04 | 0.07 | 88 | 1006.9 |
| 20260904175334 | 79 | 113 | 0.0 | 0.0 | 0.04 | 0.04 | 0.07 | 88 | 1007.0 |
| 20260904175231 | 79 | 113 | 0.0 | 0.0 | 0.04 | 0.04 | 0.07 | 88 | 1006.9 |
| 20260904175130 | 79 | 113 | 0.0 | 0.0 | 0.05 | 0.04 | 0.07 | 88 | 1006.9 |
| 20260904175030 | 79 | 113 | 0.0 | 0.0 | 0.05 | 0.04 | 0.07 | 88 | 1007.0 |
| 20260904174932 | 79 | 113 | 0.0 | 0.0 | 0.05 | 0.04 | 0.07 | 88 | 1006.9 |
| 20260904174831 | 79 | 113 | 0.0 | 0.0 | 0.05 | 0.04 | 0.07 | 88 | 1007.0 |
| 20260904174730 | 79 | 113 | 0.0 | 0.0 | 0.05 | 0.04 | 0.07 | 88 | 1007.0 |
| 20260904174628 | 79 | 113 | 0.0 | 0.0 | 0.05 | 0.04 | 0.07 | 88 | 1007.0 |
| 20260904174525 | 79 | 113 | 0.0 | 0.0 | 0.05 | 0.04 | 0.07 | 88 | 1007.0 |
| 20260904174424 | 79 | 113 | 0.0 | 0.0 | 0.06 | 0.04 | 0.07 | 88 | 1007.0 |
| 20260904174325 | 79 | 113 | 0.0 | 0.0 | 0.06 | 0.04 | 0.07 | 88 | 1007.1 |
| 20260904174221 | 79 | 113 | 0.0 | 0.0 | 0.06 | 0.04 | 0.07 | 88 | 1007.1 |
| 20260904174118 | 79 | 113 | 0.0 | 0.0 | 0.06 | 0.04 | 0.07 | 88 | 1007.1 |
| 20260904174019 | 79 | 113 | 0.0 | 0.0 | 0.06 | 0.04 | 0.07 | 88 | 1007.1 |
| 20260904173913 | 79 | 113 | 0.0 | 0.0 | 0.06 | 0.04 | 0.07 | 88 | 1007.1 |
| 20260904173814 | 79 | 113 | 0.0 | 0.0 | 0.06 | 0.04 | 0.07 | 88 | 1007.1 |
| 20260904173708 | 79 | 113 | 0.0 | 0.0 | 0.06 | 0.04 | 0.07 | 88 | 1007.0 |
| 20260904173609 | 78 | 113 | 0.0 | 0.0 | 0.06 | 0.04 | 0.07 | 88 | 1006.9 |
| 20260904173507 | 78 | 113 | 0.0 | 0.0 | 0.06 | 0.04 | 0.07 | 88 | 1006.8 |
| 20260904173403 | 78 | 113 | 0.0 | 0.0 | 0.06 | 0.04 | 0.07 | 88 | 1006.8 |
| 20260904173305 | 78 | 113 | 0.0 | 0.0 | 0.06 | 0.04 | 0.07 | 88 | 1006.8 |
| 20260904173205 | 78 | 113 | 0.0 | 0.0 | 0.06 | 0.04 | 0.07 | 88 | 1006.7 |
| 20260904173102 | 78 | 113 | 0.0 | 0.0 | 0.06 | 0.04 | 0.07 | 88 | 1006.8 |
| 20260904173004 | 78 | 113 | 0.0 | 0.0 | 0.06 | 0.04 | 0.07 | 88 | 1006.8 |
| 20260904172902 | 78 | 113 | 0.0 | 0.0 | 0.06 | 0.04 | 0.07 | 88 | 1006.9 |
| 20260904172802 | 78 | 113 | 0.0 | 0.0 | 0.06 | 0.04 | 0.07 | 88 | 1006.9 |
| 20260904172703 | 78 | 113 | 0.0 | 0.0 | 0.06 | 0.04 | 0.07 | 88 | 1006.8 |
| 20260904172603 | 78 | 113 | 0.0 | 0.0 | 0.06 | 0.04 | 0.07 | 88 | 1006.8 |
| 20260904172503 | 78 | 113 | 0.0 | 0.0 | 0.06 | 0.04 | 0.07 | 88 | 1006.7 |
| 20260904172402 | 78 | 113 | 0.0 | 0.0 | 0.06 | 0.04 | 0.07 | 88 | 1006.7 |
| 20260904172306 | 78 | 113 | 0.0 | 0.0 | 0.06 | 0.04 | 0.07 | 88 | 1006.7 |
| 20260904172204 | 78 | 113 | 0.0 | 0.0 | 0.06 | 0.04 | 0.07 | 88 | 1006.6 |
| 20260904172103 | 78 | 113 | 0.0 | 0.0 | 0.06 | 0.04 | 0.07 | 88 | 1006.6 |
| 20260904172003 | 78 | 113 | 0.0 | 0.0 | 0.06 | 0.04 | 0.07 | 88 | 1006.6 |
| 20260904171903 | 78 | 113 | 0.0 | 0.0 | 0.06 | 0.04 | 0.07 | 88 | 1006.6 |
| 20260904171804 | 78 | 113 | 0.0 | 0.0 | 0.06 | 0.04 | 0.07 | 88 | 1006.6 |
| 20260904171703 | 78 | 113 | 0.0 | 0.0 | 0.06 | 0.04 | 0.07 | 88 | 1006.7 |
| 20260904171600 | 78 | 113 | 0.0 | 0.0 | 0.06 | 0.04 | 0.07 | 87 | 1006.7 |
| 20260904171445 | 78 | 113 | 0.0 | 0.0 | 0.06 | 0.04 | 0.07 | 87 | 1006.8 |
| 20260904171344 | 77 | 113 | 0.0 | 0.0 | 0.06 | 0.04 | 0.07 | 87 | 1006.9 |
| 20260904171242 | 77 | 113 | 0.0 | 0.0 | 0.06 | 0.04 | 0.07 | 86 | 1006.9 |
| 20260904171141 | 77 | 113 | 0.0 | 0.0 | 0.06 | 0.04 | 0.07 | 86 | 1007.0 |
| 20260904171042 | 77 | 113 | 0.0 | 1.0 | 0.06 | 0.04 | 0.07 | 86 | 1006.9 |
| 20260904170942 | 77 | 113 | 0.0 | 1.0 | 0.06 | 0.04 | 0.07 | 86 | 1007.0 |
| 20260904170843 | 77 | 113 | 0.0 | 1.0 | 0.06 | 0.04 | 0.07 | 85 | 1007.0 |
| 20260904170742 | 77 | 113 | 0.0 | 1.0 | 0.06 | 0.04 | 0.06 | 85 | 1007.0 |
| 20260904170641 | 77 | 113 | 0.0 | 2.0 | 0.05 | 0.04 | 0.06 | 86 | 1007.0 |
| 20260904170540 | 77 | 113 | 0.0 | 2.0 | 0.05 | 0.04 | 0.05 | 84 | 1007.1 |
| 20260904170442 | 77 | 113 | 0.0 | 2.0 | 0.04 | 0.04 | 0.04 | 84 | 1007.0 |
| 20260904170342 | 77 | 113 | 0.0 | 2.0 | 0.03 | 0.04 | 0.04 | 84 | 1007.2 |
| 20260904170241 | 77 | 113 | 0.0 | 2.0 | 0.03 | 0.04 | 0.04 | 84 | 1007.1 |
| 20260904170142 | 78 | 113 | 0.0 | 2.0 | 0.03 | 0.04 | 0.04 | 84 | 1007.2 |
| 20260904170044 | 78 | 113 | 0.0 | 2.0 | 0.03 | 0.04 | 0.04 | 83 | 1007.2 |
| 20260904165942 | 78 | 113 | 0.0 | 2.0 | 0.03 | 0.01 | 0.04 | 83 | 1007.3 |
| 20260904165842 | 78 | 113 | 0.0 | 2.0 | 0.03 | 0.01 | 0.04 | 83 | 1007.3 |
| 20260904165741 | 78 | 113 | 0.0 | 2.0 | 0.03 | 0.01 | 0.04 | 83 | 1007.4 |
| 20260904165642 | 78 | 0 | 0.0 | 3.0 | 0.03 | 0.01 | 0.03 | 83 | 1007.4 |
| 20260904165543 | 79 | 0 | 0.0 | 3.0 | 0.02 | 0.01 | 0.03 | 83 | 1007.4 |
| 20260904165440 | 79 | 0 | 0.0 | 3.0 | 0.02 | 0.01 | 0.03 | 81 | 1007.5 |
| 20260904165342 | 79 | 0 | 0.0 | 3.0 | 0.02 | 0.01 | 0.02 | 81 | 1007.4 |
| 20260904165242 | 79 | 0 | 1.0 | 3.0 | 0.02 | 0.01 | 0.02 | 81 | 1007.5 |
| 20260904165144 | 79 | 0 | 1.0 | 3.0 | 0.01 | 0.01 | 0.02 | 79 | 1007.4 |
| 20260904165042 | 79 | 0 | 1.0 | 3.0 | 0.01 | 0.01 | 0.02 | 79 | 1007.4 |
| 20260904164940 | 80 | 0 | 1.0 | 3.0 | 0.01 | 0.01 | 0.02 | 79 | 1007.4 |
| 20260904164841 | 80 | 0 | 2.0 | 3.0 | 0.01 | 0.01 | 0.02 | 79 | 1007.3 |
| 20260904164744 | 80 | 0 | 2.0 | 3.0 | 0.01 | 0.01 | 0.02 | 79 | 1007.3 |
| 20260904164641 | 81 | 0 | 2.0 | 3.0 | 0.01 | 0.01 | 0.02 | 78 | 1007.3 |
| 20260904164543 | 81 | 0 | 2.0 | 2.0 | 0.01 | 0.01 | 0.02 | 78 | 1007.4 |
| 20260904164442 | 81 | 0 | 1.0 | 3.0 | 0.00 | 0.01 | 0.01 | 78 | 1007.3 |
| 20260904164344 | 82 | 0 | 0.0 | 3.0 | 0.00 | 0.01 | 0.01 | 76 | 1007.5 |
| 20260904164244 | 82 | 0 | 1.0 | 3.0 | 0.00 | 0.01 | 0.01 | 76 | 1007.5 |
| 20260904164143 | 82 | 0 | 1.0 | 3.0 | 0.00 | 0.01 | 0.01 | 76 | 1007.5 |
| 20260904164041 | 82 | 0 | 1.0 | 3.0 | 0.00 | 0.01 | 0.01 | 76 | 1007.5 |
| 20260904163944 | 82 | 0 | 0.0 | 3.0 | 0.00 | 0.01 | 0.01 | 75 | 1007.4 |
| 20260904163841 | 83 | 0 | 0.0 | 4.0 | 0.00 | 0.01 | 0.01 | 75 | 1007.4 |
| 20260904163744 | 83 | 0 | 0.0 | 4.0 | 0.00 | 0.01 | 0.01 | 74 | 1007.3 |
| 20260904163641 | 83 | 0 | 1.0 | 4.0 | 0.00 | 0.01 | 0.01 | 74 | 1007.4 |
| 20260904163541 | 83 | 0 | 2.0 | 5.0 | 0.00 | 0.01 | 0.01 | 74 | 1007.4 |
| 20260904163444 | 83 | 0 | 1.0 | 5.0 | 0.00 | 0.01 | 0.01 | 73 | 1007.4 |
| 20260904163344 | 83 | 0 | 1.0 | 5.0 | 0.00 | 0.01 | 0.01 | 73 | 1007.5 |
| 20260904163240 | 83 | 0 | 1.0 | 5.0 | 0.00 | 0.01 | 0.01 | 74 | 1007.4 |
| 20260904163139 | 83 | 0 | 1.0 | 5.0 | 0.00 | 0.01 | 0.01 | 73 | 1007.4 |
| 20260904163039 | 84 | 52 | 2.0 | 5.0 | 0.00 | 0.01 | 0.01 | 74 | 1007.3 |
| 20260904162932 | 84 | 86 | 2.0 | 5.0 | 0.00 | 0.01 | 0.01 | 74 | 1007.2 |
| 20260904162832 | 84 | 314 | 2.0 | 5.0 | 0.00 | 0.01 | 0.01 | 74 | 1007.1 |
| 20260904162732 | 85 | 288 | 2.0 | 5.0 | 0.00 | 0.01 | 0.01 | 74 | 1007.1 |
| 20260904162633 | 85 | 87 | 2.0 | 5.0 | 0.00 | 0.01 | 0.01 | 74 | 1007.0 |
| 20260904162538 | 85 | 237 | 1.0 | 3.0 | 0.00 | 0.01 | 0.01 | 74 | 1006.9 |
| 20260904162433 | 85 | 240 | 1.0 | 4.0 | 0.00 | 0.01 | 0.01 | 74 | 1006.8 |
| 20260904162333 | 85 | 240 | 1.0 | 4.0 | 0.00 | 0.01 | 0.01 | 74 | 1006.8 |
| 20260904162230 | 85 | 240 | 1.0 | 4.0 | 0.00 | 0.01 | 0.01 | 74 | 1006.7 |
| 20260904162132 | 85 | 240 | 1.0 | 4.0 | 0.00 | 0.01 | 0.01 | 74 | 1006.7 |
| 20260904162031 | 85 | 240 | 1.0 | 4.0 | 0.00 | 0.01 | 0.01 | 74 | 1006.6 |
| 20260904161931 | 85 | 240 | 1.0 | 4.0 | 0.00 | 0.01 | 0.01 | 74 | 1006.6 |
| 20260904161831 | 85 | 240 | 1.0 | 4.0 | 0.00 | 0.01 | 0.01 | 74 | 1006.6 |
| 20260904161733 | 85 | 240 | 0.0 | 4.0 | 0.00 | 0.01 | 0.01 | 74 | 1006.5 |
| 20260904161632 | 85 | 240 | 1.0 | 4.0 | 0.00 | 0.01 | 0.01 | 74 | 1006.4 |
| 20260904161532 | 85 | 240 | 2.0 | 4.0 | 0.00 | 0.01 | 0.01 | 74 | 1006.4 |
| 20260904161433 | 85 | 125 | 2.0 | 4.0 | 0.00 | 0.01 | 0.01 | 74 | 1006.5 |
| 20260904161332 | 85 | 228 | 2.0 | 4.0 | 0.00 | 0.01 | 0.01 | 74 | 1006.5 |
| 20260904161235 | 86 | 204 | 2.0 | 4.0 | 0.00 | 0.01 | 0.01 | 73 | 1006.4 |
| 20260904161133 | 87 | 224 | 2.0 | 4.0 | 0.00 | 0.01 | 0.01 | 73 | 1006.4 |
| 20260904161032 | 87 | 172 | 1.0 | 4.0 | 0.00 | 0.01 | 0.01 | 73 | 1006.5 |
| 20260904160933 | 87 | 172 | 2.0 | 4.0 | 0.00 | 0.01 | 0.01 | 72 | 1006.5 |
| 20260904160832 | 88 | 178 | 1.0 | 4.0 | 0.00 | 0.01 | 0.01 | 72 | 1006.4 |
| 20260904160734 | 88 | 0 | 1.0 | 5.0 | 0.00 | 0.01 | 0.01 | 72 | 1006.5 |
| 20260904160633 | 89 | 16 | 1.0 | 5.0 | 0.00 | 0.01 | 0.01 | 71 | 1006.5 |
| 20260904160532 | 89 | 190 | 1.0 | 5.0 | 0.00 | 0.01 | 0.01 | 71 | 1006.5 |
| 20260904160421 | 89 | 233 | 1.0 | 5.0 | 0.00 | 0.01 | 0.01 | 71 | 1006.4 |
| 20260904160320 | 90 | 235 | 1.0 | 5.0 | 0.00 | 0.01 | 0.01 | 71 | 1006.4 |
| 20260904160212 | 90 | 235 | 1.0 | 5.0 | 0.00 | 0.01 | 0.01 | 71 | 1006.3 |
| 20260904160109 | 90 | 305 | 2.0 | 5.0 | 0.00 | 0.01 | 0.01 | 71 | 1006.2 |
| 20260904160003 | 90 | 102 | 2.0 | 5.0 | 0.00 | 0.01 | 0.01 | 71 | 1006.2 |
| 20260904155903 | 90 | 16 | 2.0 | 5.0 | 0.00 | 0.01 | 0.01 | 71 | 1006.2 |
| 20260904155803 | 90 | 83 | 2.0 | 5.0 | 0.00 | 0.01 | 0.01 | 71 | 1006.3 |
| 20260904155703 | 90 | 243 | 2.0 | 3.0 | 0.00 | 0.01 | 0.01 | 71 | 1006.2 |
| 20260904155605 | 90 | 164 | 2.0 | 3.0 | 0.00 | 0.01 | 0.01 | 71 | 1006.3 |
| 20260904155504 | 91 | 252 | 2.0 | 3.0 | 0.00 | 0.01 | 0.01 | 72 | 1006.2 |
| 20260904155403 | 91 | 252 | 1.0 | 2.0 | 0.00 | 0.01 | 0.01 | 72 | 1006.2 |
| 20260904155306 | 91 | 252 | 0.0 | 4.0 | 0.00 | 0.01 | 0.01 | 72 | 1006.2 |
| 20260904155203 | 91 | 343 | 0.0 | 4.0 | 0.00 | 0.01 | 0.01 | 72 | 1006.2 |
| 20260904155102 | 91 | 354 | 0.0 | 4.0 | 0.00 | 0.01 | 0.01 | 72 | 1006.1 |
| 20260904155004 | 91 | 347 | 0.0 | 4.0 | 0.00 | 0.01 | 0.01 | 72 | 1006.1 |
| 20260904154902 | 91 | 345 | 1.0 | 4.0 | 0.00 | 0.01 | 0.01 | 72 | 1006.2 |
| 20260904154802 | 91 | 345 | 1.0 | 4.0 | 0.00 | 0.01 | 0.01 | 73 | 1006.2 |
| 20260904154705 | 91 | 152 | 0.0 | 4.0 | 0.00 | 0.01 | 0.01 | 73 | 1006.1 |
| 20260904154603 | 91 | 65 | 0.0 | 4.0 | 0.00 | 0.01 | 0.01 | 72 | 1006.0 |
| 20260904154505 | 91 | 65 | 1.0 | 4.0 | 0.00 | 0.01 | 0.01 | 72 | 1006.1 |
| 20260904154404 | 91 | 330 | 1.0 | 4.0 | 0.00 | 0.01 | 0.01 | 72 | 1006.0 |
| 20260904154302 | 91 | 302 | 1.0 | 2.0 | 0.00 | 0.01 | 0.01 | 73 | 1006.0 |
| 20260904154202 | 90 | 302 | 0.0 | 2.0 | 0.00 | 0.01 | 0.01 | 73 | 1006.0 |
| 20260904154103 | 90 | 300 | 0.0 | 2.0 | 0.00 | 0.01 | 0.01 | 73 | 1006.0 |
| 20260904154002 | 90 | 302 | 0.0 | 2.0 | 0.00 | 0.01 | 0.01 | 73 | 1006.0 |
| 20260904153902 | 90 | 293 | 0.0 | 2.0 | 0.00 | 0.01 | 0.01 | 73 | 1006.0 |
| 20260904153802 | 90 | 293 | 0.0 | 2.0 | 0.00 | 0.01 | 0.01 | 73 | 1006.0 |
| 20260904153705 | 90 | 292 | 0.0 | 2.0 | 0.00 | 0.01 | 0.01 | 73 | 1005.9 |
| 20260904153604 | 89 | 292 | 0.0 | 2.0 | 0.00 | 0.01 | 0.01 | 75 | 1006.0 |
| 20260904153505 | 89 | 292 | 0.0 | 1.0 | 0.00 | 0.01 | 0.01 | 75 | 1006.0 |
| 20260904153404 | 89 | 292 | 0.0 | 1.0 | 0.00 | 0.01 | 0.01 | 75 | 1005.9 |
| 20260904153304 | 89 | 0 | 0.0 | 1.0 | 0.00 | 0.01 | 0.01 | 76 | 1005.9 |
| 20260904153203 | 89 | 0 | 0.0 | 2.0 | 0.00 | 0.01 | 0.01 | 76 | 1006.0 |
| 20260904153102 | 89 | 0 | 0.0 | 2.0 | 0.00 | 0.01 | 0.01 | 76 | 1006.0 |
| 20260904153005 | 89 | 0 | 0.0 | 2.0 | 0.00 | 0.01 | 0.01 | 76 | 1005.9 |
| 20260904152902 | 89 | 0 | 0.0 | 2.0 | 0.00 | 0.01 | 0.01 | 76 | 1006.0 |
| 20260904152805 | 89 | 233 | 0.0 | 2.0 | 0.00 | 0.01 | 0.01 | 76 | 1006.1 |
| 20260904152704 | 89 | 233 | 0.0 | 2.0 | 0.00 | 0.01 | 0.01 | 76 | 1006.0 |
| 20260904152602 | 89 | 233 | 0.0 | 2.0 | 0.00 | 0.01 | 0.01 | 76 | 1006.0 |
| 20260904152502 | 89 | 233 | 0.0 | 2.0 | 0.00 | 0.01 | 0.01 | 74 | 1005.9 |
| 20260904152404 | 89 | 231 | 0.0 | 2.0 | 0.00 | 0.01 | 0.01 | 75 | 1005.9 |
| 20260904152306 | 89 | 231 | 0.0 | 2.0 | 0.00 | 0.01 | 0.01 | 75 | 1005.9 |
| 20260904152202 | 89 | 306 | 0.0 | 1.0 | 0.00 | 0.01 | 0.01 | 79 | 1006.0 |
| 20260904152105 | 87 | 0 | 0.0 | 1.0 | 0.00 | 0.01 | 0.01 | 79 | 1005.9 |
| 20260904152007 | 87 | 0 | 0.0 | 1.0 | 0.00 | 0.01 | 0.01 | 79 | 1005.9 |
| 20260904151905 | 87 | 0 | 0.0 | 2.0 | 0.00 | 0.01 | 0.01 | 79 | 1005.9 |
| 20260904151805 | 87 | 0 | 0.0 | 2.0 | 0.00 | 0.01 | 0.01 | 79 | 1005.9 |
| 20260904151705 | 87 | 0 | 0.0 | 2.0 | 0.00 | 0.01 | 0.01 | 79 | 1005.8 |
| 20260904151605 | 87 | 0 | 0.0 | 2.0 | 0.00 | 0.01 | 0.01 | 79 | 1005.9 |
| 20260904151505 | 87 | 0 | 0.0 | 2.0 | 0.00 | 0.01 | 0.01 | 79 | 1005.9 |
| 20260904151404 | 87 | 0 | 0.0 | 2.0 | 0.00 | 0.01 | 0.01 | 79 | 1006.0 |
| 20260904151303 | 87 | 0 | 0.0 | 2.0 | 0.00 | 0.01 | 0.01 | 79 | 1005.9 |
| 20260904151205 | 87 | 0 | 0.0 | 2.0 | 0.00 | 0.01 | 0.01 | 79 | 1005.9 |
| 20260904151104 | 87 | 0 | 0.0 | 2.0 | 0.00 | 0.01 | 0.01 | 79 | 1006.0 |
| 20260904151005 | 86 | 86 | 0.0 | 2.0 | 0.00 | 0.01 | 0.01 | 81 | 1006.0 |
| 20260904150903 | 86 | 354 | 0.0 | 1.0 | 0.00 | 0.01 | 0.01 | 81 | 1005.9 |
| 20260904150805 | 85 | 354 | 0.0 | 1.0 | 0.00 | 0.01 | 0.01 | 82 | 1005.9 |
| 20260904150705 | 85 | 6 | 0.0 | 1.0 | 0.00 | 0.01 | 0.01 | 83 | 1006.0 |
| 20260904150603 | 85 | 7 | 0.0 | 1.0 | 0.00 | 0.01 | 0.01 | 83 | 1005.9 |
| 20260904150505 | 85 | 8 | 0.0 | 1.0 | 0.00 | 0.01 | 0.01 | 85 | 1006.0 |
| 20260904150404 | 85 | 306 | 0.0 | 1.0 | 0.00 | 0.01 | 0.01 | 85 | 1005.9 |
| 20260904150303 | 85 | 306 | 0.0 | 1.0 | 0.00 | 0.01 | 0.01 | 85 | 1006.0 |
| 20260904150206 | 85 | 313 | 0.0 | 0.0 | 0.00 | 0.01 | 0.01 | 85 | 1006.0 |
| 20260904150004 | 85 | 313 | 0.0 | 0.0 | 0.00 | 0.01 | 0.01 | 85 | 1005.9 |
| 20260904145902 | 85 | 313 | 0.0 | 0.0 | 0.00 | 0.01 | 0.01 | 85 | 1006.0 |
| 20260904145804 | 85 | 313 | 0.0 | 0.0 | 0.00 | 0.01 | 0.01 | 85 | 1006.1 |
| 20260904145703 | 85 | 313 | 0.0 | 0.0 | 0.00 | 0.01 | 0.01 | 85 | 1006.1 |
| 20260904145603 | 85 | 313 | 0.0 | 2.0 | 0.00 | 0.01 | 0.01 | 85 | 1006.0 |
| 20260904145500 | 84 | 313 | 0.0 | 2.0 | 0.00 | 0.01 | 0.01 | 85 | 1006.1 |
| 20260904145401 | 84 | 313 | 0.0 | 2.0 | 0.00 | 0.01 | 0.01 | 85 | 1006.0 |
| 20260904145258 | 84 | 313 | 0.0 | 2.0 | 0.00 | 0.01 | 0.01 | 86 | 1006.1 |
| 20260904145157 | 84 | 313 | 0.0 | 2.0 | 0.00 | 0.01 | 0.01 | 86 | 1006.0 |
| 20260904145056 | 84 | 313 | 0.0 | 2.0 | 0.00 | 0.01 | 0.01 | 86 | 1006.1 |
| 20260904144953 | 84 | 313 | 0.0 | 2.0 | 0.00 | 0.01 | 0.01 | 86 | 1006.1 |
| 20260904144854 | 84 | 313 | 0.0 | 2.0 | 0.00 | 0.01 | 0.01 | 86 | 1006.0 |
| 20260904144757 | 84 | 313 | 0.0 | 2.0 | 0.00 | 0.01 | 0.01 | 87 | 1006.0 |
| 20260904144651 | 84 | 313 | 0.0 | 2.0 | 0.00 | 0.01 | 0.01 | 87 | 1006.1 |
| 20260904144550 | 84 | 303 | 0.0 | 2.0 | 0.00 | 0.01 | 0.01 | 87 | 1006.1 |
| 20260904144445 | 83 | 303 | 0.0 | 2.0 | 0.00 | 0.01 | 0.01 | 87 | 1006.1 |
| 20260904144347 | 83 | 302 | 0.0 | 2.0 | 0.00 | 0.01 | 0.01 | 88 | 1006.1 |
| 20260904144242 | 83 | 288 | 0.0 | 2.0 | 0.00 | 0.01 | 0.01 | 89 | 1006.0 |
| 20260904144143 | 83 | 288 | 0.0 | 2.0 | 0.00 | 0.01 | 0.01 | 89 | 1006.0 |
| 20260904144037 | 83 | 288 | 0.0 | 2.0 | 0.00 | 0.01 | 0.01 | 89 | 1006.1 |
| 20260904143935 | 82 | 288 | 0.0 | 2.0 | 0.00 | 0.01 | 0.01 | 90 | 1006.0 |
| 20260904143836 | 82 | 288 | 0.0 | 2.0 | 0.00 | 0.01 | 0.01 | 90 | 1006.0 |
| 20260904143738 | 82 | 288 | 0.0 | 2.0 | 0.00 | 0.01 | 0.01 | 90 | 1006.1 |
| 20260904143636 | 82 | 288 | 0.0 | 2.0 | 0.00 | 0.01 | 0.01 | 90 | 1006.0 |
| 20260904143536 | 82 | 286 | 0.0 | 2.0 | 0.00 | 0.01 | 0.01 | 89 | 1006.0 |
| 20260904143435 | 82 | 292 | 0.0 | 2.0 | 0.00 | 0.01 | 0.01 | 89 | 1006.0 |
| 20260904143336 | 82 | 300 | 1.0 | 2.0 | 0.00 | 0.01 | 0.01 | 89 | 1005.9 |
| 20260904143235 | 82 | 292 | 0.0 | 2.0 | 0.00 | 0.01 | 0.01 | 89 | 1005.9 |
| 20260904143135 | 81 | 292 | 0.0 | 2.0 | 0.00 | 0.01 | 0.01 | 89 | 1005.9 |
| 20260904143036 | 81 | 292 | 1.0 | 2.0 | 0.00 | 0.01 | 0.01 | 90 | 1005.9 |
| 20260904142936 | 81 | 292 | 1.0 | 2.0 | 0.00 | 0.01 | 0.01 | 90 | 1006.0 |
| 20260904142839 | 81 | 292 | 1.0 | 2.0 | 0.00 | 0.01 | 0.01 | 90 | 1006.0 |
| 20260904142736 | 81 | 292 | 1.0 | 2.0 | 0.00 | 0.01 | 0.01 | 90 | 1006.0 |
| 20260904142635 | 82 | 292 | 0.0 | 1.0 | 0.00 | 0.01 | 0.01 | 90 | 1005.9 |
| 20260904142535 | 81 | 292 | 1.0 | 1.0 | 0.00 | 0.01 | 0.01 | 90 | 1006.0 |
| 20260904142438 | 81 | 292 | 0.0 | 1.0 | 0.00 | 0.01 | 0.01 | 90 | 1006.0 |
| 20260904142337 | 81 | 283 | 0.0 | 1.0 | 0.00 | 0.01 | 0.01 | 90 | 1006.0 |
| 20260904142235 | 81 | 283 | 1.0 | 1.0 | 0.00 | 0.01 | 0.01 | 90 | 1006.0 |
| 20260904142136 | 81 | 296 | 0.0 | 2.0 | 0.00 | 0.01 | 0.01 | 90 | 1006.0 |
| 20260904142035 | 81 | 296 | 0.0 | 2.0 | 0.00 | 0.01 | 0.01 | 89 | 1006.0 |
| 20260904141939 | 81 | 296 | 0.0 | 2.0 | 0.00 | 0.01 | 0.01 | 89 | 1006.0 |
| 20260904141836 | 81 | 296 | 0.0 | 2.0 | 0.00 | 0.01 | 0.01 | 89 | 1006.1 |
| 20260904141737 | 81 | 296 | 0.0 | 2.0 | 0.00 | 0.01 | 0.01 | 89 | 1006.1 |
| 20260904141636 | 81 | 296 | 0.0 | 2.0 | 0.00 | 0.01 | 0.01 | 89 | 1006.1 |
| 20260904141536 | 81 | 296 | 0.0 | 2.0 | 0.00 | 0.01 | 0.01 | 89 | 1006.0 |
| 20260904141437 | 81 | 296 | 0.0 | 2.0 | 0.00 | 0.01 | 0.01 | 89 | 1006.1 |
| 20260904141335 | 81 | 296 | 0.0 | 2.0 | 0.00 | 0.01 | 0.01 | 90 | 1006.1 |
| 20260904141237 | 81 | 296 | 0.0 | 2.0 | 0.00 | 0.01 | 0.01 | 90 | 1006.1 |
| 20260904141136 | 81 | 296 | 0.0 | 2.0 | 0.00 | 0.01 | 0.01 | 90 | 1006.1 |
| 20260904141035 | 81 | 296 | 0.0 | 2.0 | 0.00 | 0.01 | 0.01 | 90 | 1006.1 |
| 20260904140935 | 81 | 296 | 0.0 | 2.0 | 0.00 | 0.01 | 0.01 | 90 | 1006.1 |
| 20260904140836 | 81 | 296 | 0.0 | 2.0 | 0.00 | 0.01 | 0.01 | 90 | 1006.1 |
| 20260904140735 | 81 | 296 | 0.0 | 2.0 | 0.00 | 0.01 | 0.01 | 90 | 1006.1 |
| 20260904140635 | 80 | 296 | 0.0 | 2.0 | 0.00 | 0.01 | 0.01 | 90 | 1006.1 |
| 20260904140538 | 80 | 296 | 1.0 | 2.0 | 0.00 | 0.01 | 0.01 | 90 | 1006.1 |
| 20260904140435 | 80 | 296 | 0.0 | 2.0 | 0.00 | 0.01 | 0.01 | 90 | 1006.1 |
| 20260904140335 | 80 | 296 | 1.0 | 2.0 | 0.00 | 0.01 | 0.01 | 90 | 1006.0 |
| 20260904140235 | 80 | 298 | 1.0 | 2.0 | 0.00 | 0.01 | 0.01 | 89 | 1006.0 |
| 20260904140135 | 80 | 296 | 0.0 | 2.0 | 0.00 | 0.01 | 0.01 | 89 | 1006.0 |
| 20260904140036 | 80 | 296 | 0.0 | 2.0 | 0.00 | 0.01 | 0.01 | 89 | 1006.0 |
| 20260904135934 | 80 | 296 | 0.0 | 2.0 | 0.00 | 0.01 | 0.01 | 89 | 1006.0 |
| 20260904135834 | 80 | 296 | 1.0 | 2.0 | 0.00 | 0.01 | 0.01 | 89 | 1005.9 |
| 20260904135735 | 80 | 296 | 0.0 | 2.0 | 0.00 | 0.01 | 0.01 | 89 | 1005.9 |
| 20260904135635 | 80 | 296 | 0.0 | 1.0 | 0.00 | 0.01 | 0.01 | 89 | 1005.9 |
| 20260904135535 | 80 | 296 | 0.0 | 1.0 | 0.00 | 0.01 | 0.01 | 89 | 1005.9 |
| 20260904135435 | 80 | 296 | 0.0 | 1.0 | 0.00 | 0.01 | 0.01 | 89 | 1006.0 |
| 20260904135334 | 80 | 296 | 0.0 | 1.0 | 0.00 | 0.01 | 0.01 | 89 | 1006.0 |
| 20260904135234 | 80 | 296 | 0.0 | 1.0 | 0.00 | 0.01 | 0.01 | 89 | 1005.9 |
| 20260904135135 | 80 | 295 | 0.0 | 1.0 | 0.00 | 0.01 | 0.01 | 89 | 1005.9 |
| 20260904135036 | 80 | 295 | 0.0 | 1.0 | 0.00 | 0.01 | 0.01 | 89 | 1005.9 |
| 20260904134935 | 80 | 295 | 0.0 | 1.0 | 0.00 | 0.01 | 0.01 | 89 | 1006.0 |
| 20260904134836 | 80 | 295 | 0.0 | 1.0 | 0.00 | 0.01 | 0.01 | 89 | 1005.9 |
| 20260904134736 | 80 | 295 | 0.0 | 1.0 | 0.00 | 0.01 | 0.01 | 89 | 1005.9 |
| 20260904134635 | 80 | 295 | 0.0 | 1.0 | 0.00 | 0.01 | 0.01 | 89 | 1005.9 |
| 20260904134534 | 80 | 295 | 0.0 | 1.0 | 0.00 | 0.01 | 0.01 | 89 | 1005.8 |
| 20260904134434 | 80 | 295 | 0.0 | 1.0 | 0.00 | 0.01 | 0.01 | 89 | 1005.8 |
| 20260904134335 | 80 | 295 | 0.0 | 1.0 | 0.00 | 0.01 | 0.01 | 89 | 1005.8 |
| 20260904134230 | 80 | 295 | 0.0 | 1.0 | 0.00 | 0.01 | 0.01 | 89 | 1005.8 |
| 20260904134132 | 80 | 295 | 0.0 | 1.0 | 0.00 | 0.01 | 0.01 | 89 | 1005.8 |
| 20260904134032 | 80 | 295 | 0.0 | 1.0 | 0.00 | 0.01 | 0.01 | 89 | 1005.7 |
| 20260904133931 | 80 | 295 | 0.0 | 1.0 | 0.00 | 0.01 | 0.01 | 89 | 1005.8 |
| 20260904133831 | 79 | 295 | 0.0 | 1.0 | 0.00 | 0.01 | 0.01 | 89 | 1005.7 |
| 20260904133728 | 80 | 295 | 0.0 | 1.0 | 0.00 | 0.01 | 0.01 | 89 | 1005.7 |
| 20260904133628 | 79 | 295 | 0.0 | 1.0 | 0.00 | 0.01 | 0.01 | 89 | 1005.8 |
| 20260904133524 | 79 | 295 | 0.0 | 0.0 | 0.00 | 0.01 | 0.01 | 89 | 1005.8 |
| 20260904133424 | 79 | 295 | 0.0 | 0.0 | 0.00 | 0.01 | 0.01 | 89 | 1005.7 |
| 20260904133325 | 79 | 295 | 0.0 | 0.0 | 0.00 | 0.01 | 0.01 | 89 | 1005.7 |
| 20260904133216 | 79 | 295 | 0.0 | 0.0 | 0.00 | 0.01 | 0.01 | 89 | 1005.6 |
| 20260904133105 | 79 | 295 | 0.0 | 0.0 | 0.00 | 0.01 | 0.01 | 89 | 1005.7 |
| 20260904133005 | 79 | 295 | 0.0 | 0.0 | 0.00 | 0.01 | 0.01 | 89 | 1005.8 |
| 20260904132903 | 79 | 295 | 0.0 | 0.0 | 0.00 | 0.01 | 0.01 | 89 | 1005.7 |
| 20260904132803 | 79 | 295 | 0.0 | 0.0 | 0.00 | 0.01 | 0.01 | 89 | 1005.8 |
| 20260904132703 | 79 | 295 | 0.0 | 0.0 | 0.00 | 0.01 | 0.01 | 89 | 1005.8 |
| 20260904132604 | 79 | 295 | 0.0 | 0.0 | 0.00 | 0.01 | 0.01 | 89 | 1005.7 |
| 20260904132504 | 79 | 295 | 0.0 | 0.0 | 0.00 | 0.01 | 0.01 | 89 | 1005.7 |
| 20260904132405 | 79 | 295 | 0.0 | 0.0 | 0.00 | 0.01 | 0.01 | 89 | 1005.7 |
| 20260904132306 | 79 | 295 | 0.0 | 0.0 | 0.00 | 0.01 | 0.01 | 89 | 1005.7 |
| 20260904132157 | 79 | 295 | 0.0 | 0.0 | 0.00 | 0.01 | 0.01 | 89 | 1005.7 |
| 20260904132057 | 79 | 295 | 0.0 | 1.0 | 0.00 | 0.01 | 0.01 | 89 | 1005.7 |
| 20260904131955 | 79 | 295 | 0.0 | 1.0 | 0.00 | 0.01 | 0.01 | 89 | 1005.7 |
| 20260904131851 | 79 | 295 | 0.0 | 1.0 | 0.00 | 0.01 | 0.01 | 89 | 1005.7 |
| 20260904131750 | 79 | 295 | 0.0 | 1.0 | 0.00 | 0.01 | 0.01 | 89 | 1005.7 |
| 20260904131646 | 79 | 295 | 0.0 | 1.0 | 0.00 | 0.01 | 0.01 | 89 | 1005.6 |
| 20260904131543 | 79 | 295 | 0.0 | 1.0 | 0.00 | 0.01 | 0.01 | 89 | 1005.6 |
| 20260904131443 | 79 | 295 | 0.0 | 1.0 | 0.00 | 0.01 | 0.01 | 89 | 1005.6 |
| 20260904131343 | 79 | 295 | 0.0 | 1.0 | 0.00 | 0.01 | 0.01 | 89 | 1005.7 |
| 20260904131236 | 79 | 295 | 0.0 | 1.0 | 0.00 | 0.01 | 0.01 | 89 | 1005.7 |
| 20260904131136 | 79 | 295 | 0.0 | 0.0 | 0.00 | 0.01 | 0.01 | 89 | 1005.7 |
| 20260904131034 | 79 | 295 | 0.0 | 0.0 | 0.00 | 0.01 | 0.01 | 89 | 1005.6 |
| 20260904130934 | 79 | 295 | 0.0 | 0.0 | 0.00 | 0.01 | 0.01 | 89 | 1005.6 |
| 20260904130834 | 79 | 295 | 0.0 | 0.0 | 0.00 | 0.01 | 0.01 | 89 | 1005.7 |
| 20260904130734 | 79 | 295 | 0.0 | 0.0 | 0.00 | 0.01 | 0.01 | 89 | 1005.6 |
| 20260904130634 | 78 | 295 | 0.0 | 0.0 | 0.00 | 0.01 | 0.01 | 89 | 1005.6 |
| 20260904130534 | 78 | 295 | 0.0 | 0.0 | 0.00 | 0.01 | 0.01 | 89 | 1005.6 |
| 20260904130436 | 78 | 295 | 0.0 | 0.0 | 0.00 | 0.01 | 0.01 | 89 | 1005.7 |
| 20260904130335 | 78 | 295 | 0.0 | 0.0 | 0.00 | 0.01 | 0.01 | 89 | 1005.6 |
| 20260904130234 | 78 | 295 | 0.0 | 0.0 | 0.00 | 0.01 | 0.01 | 89 | 1005.5 |
| 20260904130133 | 78 | 295 | 0.0 | 0.0 | 0.00 | 0.01 | 0.01 | 89 | 1005.5 |
| 20260904130035 | 78 | 295 | 0.0 | 0.0 | 0.00 | 0.01 | 0.01 | 89 | 1005.5 |
| 20260904125933 | 78 | 295 | 0.0 | 0.0 | 0.00 | 0.01 | 0.01 | 89 | 1005.5 |
| 20260904125835 | 78 | 295 | 0.0 | 0.0 | 0.00 | 0.01 | 0.01 | 89 | 1005.6 |
| 20260904125734 | 78 | 295 | 0.0 | 0.0 | 0.00 | 0.01 | 0.01 | 88 | 1005.4 |
| 20260904125635 | 78 | 295 | 0.0 | 0.0 | 0.00 | 0.01 | 0.01 | 88 | 1005.4 |
| 20260904125534 | 78 | 295 | 0.0 | 0.0 | 0.00 | 0.01 | 0.01 | 88 | 1005.5 |
| 20260904125434 | 78 | 295 | 0.0 | 0.0 | 0.00 | 0.01 | 0.01 | 88 | 1005.4 |
| 20260904125334 | 78 | 295 | 0.0 | 0.0 | 0.00 | 0.01 | 0.01 | 88 | 1005.4 |
| 20260904125235 | 78 | 295 | 0.0 | 0.0 | 0.00 | 0.01 | 0.01 | 88 | 1005.4 |
| 20260904125135 | 78 | 295 | 0.0 | 0.0 | 0.00 | 0.01 | 0.01 | 88 | 1005.4 |
| 20260904125038 | 78 | 295 | 0.0 | 0.0 | 0.00 | 0.01 | 0.01 | 88 | 1005.5 |
| 20260904124935 | 78 | 295 | 0.0 | 0.0 | 0.00 | 0.01 | 0.01 | 88 | 1005.4 |
| 20260904124835 | 78 | 295 | 0.0 | 0.0 | 0.00 | 0.01 | 0.01 | 88 | 1005.4 |
| 20260904124734 | 78 | 295 | 0.0 | 0.0 | 0.00 | 0.01 | 0.01 | 88 | 1005.3 |
| 20260904124633 | 78 | 295 | 0.0 | 0.0 | 0.00 | 0.01 | 0.01 | 88 | 1005.2 |
| 20260904124536 | 78 | 295 | 0.0 | 0.0 | 0.00 | 0.01 | 0.01 | 88 | 1005.2 |
| 20260904124435 | 78 | 295 | 0.0 | 0.0 | 0.00 | 0.01 | 0.01 | 88 | 1005.3 |
| 20260904124333 | 78 | 295 | 0.0 | 0.0 | 0.00 | 0.01 | 0.01 | 88 | 1005.3 |
| 20260904124234 | 78 | 295 | 0.0 | 0.0 | 0.00 | 0.01 | 0.01 | 88 | 1005.3 |
| 20260904124133 | 78 | 295 | 0.0 | 0.0 | 0.00 | 0.01 | 0.01 | 88 | 1005.3 |
| 20260904124035 | 78 | 295 | 0.0 | 0.0 | 0.00 | 0.01 | 0.01 | 88 | 1005.2 |
| 20260904123933 | 78 | 295 | 0.0 | 0.0 | 0.00 | 0.01 | 0.01 | 88 | 1005.3 |
| 20260904123833 | 78 | 295 | 0.0 | 0.0 | 0.00 | 0.01 | 0.01 | 88 | 1005.2 |
| 20260904123733 | 78 | 295 | 0.0 | 0.0 | 0.00 | 0.01 | 0.01 | 88 | 1005.2 |
| 20260904123635 | 78 | 295 | 0.0 | 0.0 | 0.00 | 0.01 | 0.01 | 88 | 1005.2 |
| 20260904123534 | 78 | 295 | 0.0 | 0.0 | 0.00 | 0.01 | 0.01 | 88 | 1005.2 |
| 20260904123435 | 78 | 295 | 0.0 | 0.0 | 0.00 | 0.01 | 0.01 | 88 | 1005.2 |
| 20260904123335 | 78 | 295 | 0.0 | 0.0 | 0.00 | 0.01 | 0.01 | 88 | 1005.2 |
| 20260904123235 | 78 | 295 | 0.0 | 0.0 | 0.00 | 0.01 | 0.01 | 88 | 1005.2 |
| 20260904123134 | 78 | 295 | 0.0 | 0.0 | 0.00 | 0.01 | 0.01 | 88 | 1005.2 |
| 20260904123032 | 78 | 295 | 0.0 | 0.0 | 0.00 | 0.01 | 0.01 | 88 | 1005.2 |
| 20260904122934 | 78 | 295 | 0.0 | 0.0 | 0.00 | 0.01 | 0.01 | 88 | 1005.2 |
| 20260904122836 | 78 | 295 | 0.0 | 0.0 | 0.00 | 0.01 | 0.01 | 88 | 1005.1 |
| 20260904122733 | 78 | 295 | 0.0 | 0.0 | 0.00 | 0.01 | 0.01 | 88 | 1005.1 |
| 20260904122633 | 78 | 295 | 0.0 | 0.0 | 0.00 | 0.01 | 0.01 | 88 | 1005.2 |
| 20260904122532 | 78 | 295 | 0.0 | 0.0 | 0.00 | 0.01 | 0.01 | 88 | 1005.1 |
| 20260904122433 | 78 | 295 | 0.0 | 0.0 | 0.00 | 0.01 | 0.01 | 88 | 1005.1 |
| 20260904122334 | 78 | 295 | 0.0 | 0.0 | 0.00 | 0.01 | 0.01 | 88 | 1005.1 |
| 20260904122233 | 78 | 295 | 0.0 | 0.0 | 0.00 | 0.01 | 0.01 | 88 | 1005.2 |
| 20260904122132 | 78 | 295 | 0.0 | 0.0 | 0.00 | 0.01 | 0.01 | 88 | 1005.2 |
| 20260904122032 | 78 | 295 | 0.0 | 0.0 | 0.00 | 0.01 | 0.01 | 88 | 1005.1 |
| 20260904121932 | 78 | 295 | 0.0 | 0.0 | 0.00 | 0.01 | 0.01 | 88 | 1005.1 |
| 20260904121835 | 78 | 295 | 0.0 | 0.0 | 0.00 | 0.01 | 0.01 | 88 | 1005.1 |
| 20260904121733 | 78 | 295 | 0.0 | 0.0 | 0.00 | 0.01 | 0.01 | 88 | 1005.1 |
| 20260904121632 | 78 | 295 | 0.0 | 0.0 | 0.00 | 0.01 | 0.01 | 88 | 1005.1 |
| 20260904121533 | 78 | 295 | 0.0 | 0.0 | 0.00 | 0.01 | 0.01 | 88 | 1005.1 |
| 20260904121434 | 78 | 295 | 0.0 | 0.0 | 0.00 | 0.01 | 0.01 | 88 | 1005.1 |
| 20260904121333 | 78 | 295 | 0.0 | 0.0 | 0.00 | 0.01 | 0.01 | 88 | 1005.0 |
| 20260904121232 | 78 | 295 | 0.0 | 0.0 | 0.00 | 0.01 | 0.01 | 88 | 1005.0 |
| 20260904121132 | 78 | 295 | 0.0 | 0.0 | 0.00 | 0.01 | 0.01 | 88 | 1005.0 |
| 20260904121032 | 78 | 295 | 0.0 | 0.0 | 0.00 | 0.01 | 0.01 | 88 | 1005.0 |
| 20260904120934 | 78 | 295 | 0.0 | 0.0 | 0.00 | 0.01 | 0.01 | 88 | 1005.0 |
| 20260904120832 | 78 | 295 | 0.0 | 0.0 | 0.00 | 0.01 | 0.01 | 88 | 1005.0 |
| 20260904120732 | 78 | 295 | 0.0 | 0.0 | 0.00 | 0.01 | 0.01 | 88 | 1005.0 |
| 20260904120633 | 78 | 295 | 0.0 | 0.0 | 0.00 | 0.01 | 0.01 | 88 | 1005.0 |
| 20260904120533 | 78 | 295 | 0.0 | 0.0 | 0.00 | 0.01 | 0.01 | 88 | 1005.0 |
| 20260904120434 | 78 | 295 | 0.0 | 0.0 | 0.00 | 0.01 | 0.01 | 88 | 1005.0 |
| 20260904120334 | 78 | 295 | 0.0 | 0.0 | 0.01 | 0.01 | 0.01 | 88 | 1004.9 |
| 20260904120232 | 78 | 295 | 0.0 | 0.0 | 0.01 | 0.01 | 0.01 | 88 | 1004.9 |
| 20260904120133 | 78 | 295 | 0.0 | 0.0 | 0.01 | 0.01 | 0.01 | 88 | 1004.9 |
| 20260904120033 | 78 | 295 | 0.0 | 0.0 | 0.01 | 0.01 | 0.01 | 88 | 1004.9 |
| 20260904115932 | 78 | 295 | 0.0 | 0.0 | 0.01 | 0.00 | 0.01 | 88 | 1004.9 |
| 20260904115832 | 78 | 295 | 0.0 | 0.0 | 0.01 | 0.00 | 0.01 | 88 | 1004.9 |
| 20260904115732 | 78 | 295 | 0.0 | 0.0 | 0.01 | 0.00 | 0.01 | 88 | 1004.9 |
| 20260904115633 | 78 | 295 | 0.0 | 0.0 | 0.01 | 0.00 | 0.01 | 88 | 1005.0 |
| 20260904115533 | 78 | 295 | 0.0 | 0.0 | 0.01 | 0.00 | 0.01 | 88 | 1004.9 |
| 20260904115432 | 78 | 295 | 0.0 | 0.0 | 0.01 | 0.00 | 0.01 | 88 | 1004.9 |
| 20260904115333 | 78 | 295 | 0.0 | 0.0 | 0.01 | 0.00 | 0.01 | 88 | 1004.9 |
| 20260904115232 | 78 | 295 | 0.0 | 0.0 | 0.01 | 0.00 | 0.01 | 88 | 1004.9 |
| 20260904115132 | 78 | 295 | 0.0 | 0.0 | 0.01 | 0.00 | 0.01 | 88 | 1004.9 |
| 20260904115033 | 78 | 295 | 0.0 | 0.0 | 0.01 | 0.00 | 0.01 | 88 | 1005.0 |
| 20260904114932 | 78 | 295 | 0.0 | 0.0 | 0.01 | 0.00 | 0.01 | 88 | 1005.0 |
| 20260904114832 | 78 | 295 | 0.0 | 0.0 | 0.01 | 0.00 | 0.01 | 88 | 1004.9 |
| 20260904114733 | 78 | 295 | 0.0 | 0.0 | 0.01 | 0.00 | 0.01 | 88 | 1005.0 |
| 20260904114631 | 78 | 295 | 0.0 | 0.0 | 0.01 | 0.00 | 0.01 | 88 | 1005.0 |
| 20260904114531 | 78 | 295 | 0.0 | 0.0 | 0.01 | 0.00 | 0.01 | 88 | 1004.9 |
| 20260904114432 | 78 | 295 | 0.0 | 0.0 | 0.01 | 0.00 | 0.01 | 88 | 1004.9 |
| 20260904114333 | 78 | 295 | 0.0 | 0.0 | 0.01 | 0.00 | 0.01 | 88 | 1004.9 |
| 20260904114232 | 78 | 295 | 0.0 | 0.0 | 0.01 | 0.00 | 0.01 | 88 | 1005.0 |
| 20260904114131 | 78 | 295 | 0.0 | 0.0 | 0.01 | 0.00 | 0.01 | 88 | 1004.9 |
| 20260904114031 | 78 | 295 | 0.0 | 0.0 | 0.01 | 0.00 | 0.01 | 88 | 1004.9 |
| 20260904113932 | 78 | 295 | 0.0 | 0.0 | 0.01 | 0.00 | 0.01 | 88 | 1004.9 |
| 20260904113829 | 78 | 295 | 0.0 | 0.0 | 0.01 | 0.00 | 0.01 | 88 | 1005.0 |
| 20260904113726 | 78 | 295 | 0.0 | 0.0 | 0.01 | 0.00 | 0.01 | 88 | 1004.9 |
| 20260904113630 | 78 | 295 | 0.0 | 0.0 | 0.01 | 0.00 | 0.01 | 88 | 1004.9 |
| 20260904113523 | 78 | 295 | 0.0 | 0.0 | 0.01 | 0.00 | 0.01 | 88 | 1004.9 |
| 20260904113422 | 78 | 295 | 0.0 | 0.0 | 0.01 | 0.00 | 0.01 | 88 | 1004.9 |
| 20260904113311 | 78 | 295 | 0.0 | 0.0 | 0.01 | 0.00 | 0.01 | 88 | 1004.9 |
| 20260904113203 | 78 | 295 | 0.0 | 0.0 | 0.01 | 0.00 | 0.01 | 88 | 1004.9 |
| 20260904113105 | 78 | 295 | 0.0 | 0.0 | 0.01 | 0.00 | 0.01 | 88 | 1004.8 |
| 20260904113004 | 78 | 295 | 0.0 | 0.0 | 0.01 | 0.00 | 0.01 | 88 | 1004.8 |
| 20260904112903 | 78 | 295 | 0.0 | 0.0 | 0.01 | 0.00 | 0.01 | 88 | 1004.7 |
| 20260904112805 | 78 | 295 | 0.0 | 0.0 | 0.01 | 0.00 | 0.01 | 88 | 1004.8 |
| 20260904112702 | 78 | 295 | 0.0 | 0.0 | 0.01 | 0.00 | 0.01 | 88 | 1004.7 |
| 20260904112601 | 78 | 295 | 0.0 | 0.0 | 0.01 | 0.00 | 0.01 | 88 | 1004.7 |
| 20260904112503 | 78 | 295 | 0.0 | 0.0 | 0.01 | 0.00 | 0.01 | 88 | 1004.7 |
| 20260904112403 | 78 | 295 | 0.0 | 0.0 | 0.01 | 0.00 | 0.01 | 88 | 1004.6 |
| 20260904112305 | 78 | 295 | 0.0 | 0.0 | 0.01 | 0.00 | 0.01 | 88 | 1004.7 |
| 20260904112203 | 78 | 295 | 0.0 | 0.0 | 0.01 | 0.00 | 0.01 | 88 | 1004.7 |
| 20260904112103 | 78 | 295 | 0.0 | 0.0 | 0.01 | 0.00 | 0.01 | 88 | 1004.6 |
| 20260904112003 | 78 | 295 | 0.0 | 0.0 | 0.01 | 0.00 | 0.01 | 88 | 1004.6 |
| 20260904111902 | 78 | 295 | 0.0 | 0.0 | 0.01 | 0.00 | 0.01 | 88 | 1004.6 |
| 20260904111804 | 78 | 295 | 0.0 | 0.0 | 0.01 | 0.00 | 0.01 | 88 | 1004.7 |
| 20260904111705 | 78 | 295 | 0.0 | 0.0 | 0.01 | 0.00 | 0.01 | 88 | 1004.6 |
| 20260904111604 | 78 | 295 | 0.0 | 0.0 | 0.01 | 0.00 | 0.01 | 88 | 1004.6 |
| 20260904111504 | 78 | 295 | 0.0 | 0.0 | 0.01 | 0.00 | 0.01 | 88 | 1004.7 |
| 20260904111403 | 78 | 295 | 0.0 | 0.0 | 0.01 | 0.00 | 0.01 | 88 | 1004.6 |
| 20260904111302 | 78 | 295 | 0.0 | 0.0 | 0.01 | 0.00 | 0.01 | 88 | 1004.6 |
| 20260904111203 | 78 | 295 | 0.0 | 0.0 | 0.01 | 0.00 | 0.01 | 88 | 1004.6 |
| 20260904111103 | 78 | 295 | 0.0 | 0.0 | 0.01 | 0.00 | 0.01 | 88 | 1004.6 |
| 20260904111001 | 78 | 295 | 0.0 | 0.0 | 0.01 | 0.00 | 0.01 | 88 | 1004.6 |
| 20260904110902 | 78 | 295 | 0.0 | 0.0 | 0.01 | 0.00 | 0.01 | 88 | 1004.7 |
| 20260904110805 | 78 | 295 | 0.0 | 0.0 | 0.01 | 0.00 | 0.01 | 88 | 1004.6 |
| 20260904110702 | 78 | 295 | 0.0 | 0.0 | 0.01 | 0.00 | 0.01 | 88 | 1004.7 |
| 20260904110602 | 78 | 295 | 0.0 | 0.0 | 0.01 | 0.00 | 0.01 | 88 | 1004.7 |
| 20260904110502 | 78 | 295 | 0.0 | 0.0 | 0.01 | 0.00 | 0.01 | 88 | 1004.7 |
| 20260904110403 | 78 | 295 | 0.0 | 0.0 | 0.01 | 0.00 | 0.00 | 88 | 1004.6 |
| 20260904110303 | 78 | 295 | 0.0 | 0.0 | 0.00 | 0.00 | 0.00 | 88 | 1004.7 |
| 20260904110202 | 78 | 295 | 0.0 | 0.0 | 0.00 | 0.00 | 0.00 | 88 | 1004.7 |
| 20260904110006 | 78 | 295 | 0.0 | 0.0 | 0.00 | 0.00 | 0.00 | 88 | 1004.6 |
| 20260904105902 | 78 | 295 | 0.0 | 0.0 | 0.00 | 0.00 | 0.00 | 88 | 1004.7 |
| 20260904105802 | 78 | 295 | 0.0 | 0.0 | 0.00 | 0.00 | 0.00 | 88 | 1004.6 |
| 20260904105702 | 78 | 295 | 0.0 | 0.0 | 0.00 | 0.00 | 0.00 | 88 | 1004.6 |
| 20260904105602 | 78 | 295 | 0.0 | 0.0 | 0.00 | 0.00 | 0.00 | 88 | 1004.6 |
| 20260904105506 | 78 | 295 | 0.0 | 0.0 | 0.00 | 0.00 | 0.00 | 88 | 1004.6 |
| 20260904105404 | 78 | 295 | 0.0 | 0.0 | 0.00 | 0.00 | 0.00 | 88 | 1004.5 |
| 20260904105306 | 78 | 295 | 0.0 | 0.0 | 0.00 | 0.00 | 0.00 | 88 | 1004.6 |
| 20260904105203 | 78 | 295 | 0.0 | 0.0 | 0.00 | 0.00 | 0.00 | 88 | 1004.6 |
| 20260904105102 | 78 | 295 | 0.0 | 0.0 | 0.00 | 0.00 | 0.00 | 88 | 1004.6 |
| 20260904105003 | 78 | 295 | 0.0 | 0.0 | 0.00 | 0.00 | 0.00 | 88 | 1004.6 |
| 20260904104903 | 78 | 295 | 0.0 | 0.0 | 0.00 | 0.00 | 0.00 | 88 | 1004.5 |
| 20260904104802 | 78 | 295 | 0.0 | 0.0 | 0.00 | 0.00 | 0.00 | 88 | 1004.6 |
| 20260904104705 | 78 | 295 | 0.0 | 0.0 | 0.00 | 0.00 | 0.00 | 88 | 1004.5 |
| 20260904104602 | 78 | 295 | 0.0 | 0.0 | 0.00 | 0.00 | 0.00 | 88 | 1004.6 |
| 20260904104503 | 78 | 295 | 0.0 | 0.0 | 0.00 | 0.00 | 0.00 | 88 | 1004.5 |
| 20260904104402 | 78 | 295 | 0.0 | 0.0 | 0.00 | 0.00 | 0.00 | 88 | 1004.5 |
| 20260904104303 | 78 | 295 | 0.0 | 0.0 | 0.00 | 0.00 | 0.00 | 88 | 1004.6 |
| 20260904104203 | 78 | 295 | 0.0 | 0.0 | 0.00 | 0.00 | 0.00 | 88 | 1004.5 |
| 20260904104102 | 78 | 295 | 0.0 | 0.0 | 0.00 | 0.00 | 0.00 | 88 | 1004.5 |
| 20260904104003 | 78 | 295 | 0.0 | 0.0 | 0.00 | 0.00 | 0.00 | 88 | 1004.5 |
| 20260904103902 | 78 | 295 | 0.0 | 0.0 | 0.00 | 0.00 | 0.00 | 88 | 1004.5 |
| 20260904103804 | 78 | 295 | 0.0 | 0.0 | 0.00 | 0.00 | 0.00 | 88 | 1004.5 |
| 20260904103703 | 78 | 295 | 0.0 | 0.0 | 0.00 | 0.00 | 0.00 | 88 | 1004.5 |
| 20260904103603 | 78 | 295 | 0.0 | 0.0 | 0.00 | 0.00 | 0.00 | 88 | 1004.5 |
| 20260904103503 | 78 | 295 | 0.0 | 0.0 | 0.00 | 0.00 | 0.00 | 88 | 1004.5 |
| 20260904103404 | 78 | 295 | 0.0 | 0.0 | 0.00 | 0.00 | 0.00 | 88 | 1004.5 |
| 20260904103303 | 78 | 295 | 0.0 | 0.0 | 0.00 | 0.00 | 0.00 | 88 | 1004.5 |
| 20260904103203 | 78 | 295 | 0.0 | 0.0 | 0.00 | 0.00 | 0.00 | 88 | 1004.6 |
| 20260904103102 | 78 | 295 | 0.0 | 0.0 | 0.00 | 0.00 | 0.00 | 88 | 1004.5 |
| 20260904103005 | 78 | 295 | 0.0 | 0.0 | 0.00 | 0.00 | 0.00 | 88 | 1004.5 |
| 20260904102905 | 78 | 295 | 0.0 | 0.0 | 0.00 | 0.00 | 0.00 | 88 | 1004.5 |
| 20260904102803 | 78 | 295 | 0.0 | 0.0 | 0.00 | 0.00 | 0.00 | 88 | 1004.6 |
| 20260904102702 | 78 | 295 | 0.0 | 0.0 | 0.00 | 0.00 | 0.00 | 88 | 1004.5 |
| 20260904102604 | 78 | 295 | 0.0 | 0.0 | 0.00 | 0.00 | 0.00 | 88 | 1004.6 |
| 20260904102507 | 78 | 295 | 0.0 | 0.0 | 0.00 | 0.00 | 0.00 | 88 | 1004.5 |
| 20260904102404 | 78 | 295 | 0.0 | 0.0 | 0.00 | 0.00 | 0.00 | 88 | 1004.5 |
| 20260904102306 | 78 | 295 | 0.0 | 0.0 | 0.00 | 0.00 | 0.00 | 88 | 1004.5 |
| 20260904102202 | 78 | 295 | 0.0 | 0.0 | 0.00 | 0.00 | 0.00 | 88 | 1004.5 |
| 20260904102106 | 78 | 295 | 0.0 | 0.0 | 0.00 | 0.00 | 0.00 | 88 | 1004.5 |
| 20260904102003 | 78 | 295 | 0.0 | 0.0 | 0.00 | 0.00 | 0.00 | 88 | 1004.5 |
| 20260904101858 | 78 | 295 | 0.0 | 0.0 | 0.00 | 0.00 | 0.00 | 88 | 1004.5 |
| 20260904101755 | 78 | 295 | 0.0 | 0.0 | 0.00 | 0.00 | 0.00 | 88 | 1004.5 |
| 20260904101654 | 78 | 295 | 0.0 | 0.0 | 0.00 | 0.00 | 0.00 | 88 | 1004.6 |
| 20260904101555 | 78 | 295 | 0.0 | 0.0 | 0.00 | 0.00 | 0.00 | 88 | 1004.5 |
| 20260904101453 | 78 | 295 | 0.0 | 0.0 | 0.00 | 0.00 | 0.00 | 88 | 1004.5 |
| 20260904101348 | 78 | 295 | 0.0 | 0.0 | 0.00 | 0.00 | 0.00 | 88 | 1004.5 |
| 20260904101239 | 78 | 295 | 0.0 | 0.0 | 0.00 | 0.00 | 0.00 | 88 | 1004.5 |
| 20260904101131 | 78 | 295 | 0.0 | 0.0 | 0.00 | 0.00 | 0.00 | 88 | 1004.5 |
| 20260904101032 | 78 | 295 | 0.0 | 0.0 | 0.00 | 0.00 | 0.00 | 88 | 1004.5 |
| 20260904100932 | 78 | 295 | 0.0 | 0.0 | 0.00 | 0.00 | 0.00 | 88 | 1004.5 |
| 20260904100831 | 78 | 295 | 0.0 | 0.0 | 0.00 | 0.00 | 0.00 | 88 | 1004.5 |
| 20260904100732 | 78 | 295 | 0.0 | 0.0 | 0.00 | 0.00 | 0.00 | 88 | 1004.4 |
| 20260904100632 | 78 | 295 | 0.0 | 0.0 | 0.00 | 0.00 | 0.00 | 88 | 1004.4 |
| 20260904100532 | 78 | 295 | 0.0 | 0.0 | 0.00 | 0.00 | 0.00 | 88 | 1004.4 |
| 20260904100431 | 78 | 295 | 0.0 | 0.0 | 0.00 | 0.00 | 0.00 | 88 | 1004.5 |
| 20260904100331 | 78 | 295 | 0.0 | 0.0 | 0.00 | 0.00 | 0.00 | 88 | 1004.4 |
| 20260904100233 | 78 | 295 | 0.0 | 0.0 | 0.00 | 0.00 | 0.00 | 88 | 1004.4 |
| 20260904100132 | 78 | 295 | 0.0 | 0.0 | 0.00 | 0.00 | 0.00 | 88 | 1004.4 |
| 20260904100032 | 78 | 295 | 0.0 | 0.0 | 0.00 | 0.00 | 0.00 | 88 | 1004.4 |
| 20260904095931 | 78 | 295 | 0.0 | 0.0 | 0.00 | 0.00 | 0.00 | 88 | 1004.4 |
| 20260904095830 | 78 | 295 | 0.0 | 0.0 | 0.00 | 0.00 | 0.00 | 88 | 1004.3 |
| 20260904095729 | 78 | 295 | 0.0 | 0.0 | 0.00 | 0.00 | 0.00 | 88 | 1004.3 |
| 20260904095632 | 78 | 295 | 0.0 | 0.0 | 0.00 | 0.00 | 0.00 | 88 | 1004.3 |
| 20260904095531 | 78 | 295 | 0.0 | 0.0 | 0.00 | 0.00 | 0.00 | 88 | 1004.3 |
| 20260904095431 | 78 | 295 | 0.0 | 0.0 | 0.00 | 0.00 | 0.00 | 88 | 1004.3 |
| 20260904095331 | 78 | 295 | 0.0 | 0.0 | 0.00 | 0.00 | 0.00 | 88 | 1004.3 |
| 20260904095230 | 78 | 295 | 0.0 | 0.0 | 0.00 | 0.00 | 0.00 | 88 | 1004.3 |
| 20260904095132 | 78 | 295 | 0.0 | 0.0 | 0.00 | 0.00 | 0.00 | 88 | 1004.3 |
| 20260904095029 | 78 | 295 | 0.0 | 0.0 | 0.00 | 0.00 | 0.00 | 88 | 1004.3 |
| 20260904094929 | 78 | 295 | 0.0 | 0.0 | 0.00 | 0.00 | 0.00 | 88 | 1004.4 |
| 20260904094830 | 78 | 295 | 0.0 | 0.0 | 0.00 | 0.00 | 0.00 | 88 | 1004.3 |
| 20260904094733 | 78 | 295 | 0.0 | 0.0 | 0.00 | 0.00 | 0.00 | 88 | 1004.3 |
| 20260904094629 | 78 | 295 | 0.0 | 0.0 | 0.00 | 0.00 | 0.00 | 88 | 1004.3 |
| 20260904094529 | 78 | 295 | 0.0 | 0.0 | 0.00 | 0.00 | 0.00 | 88 | 1004.3 |
| 20260904094430 | 78 | 295 | 0.0 | 0.0 | 0.00 | 0.00 | 0.00 | 88 | 1004.3 |
| 20260904094329 | 78 | 295 | 0.0 | 0.0 | 0.00 | 0.00 | 0.00 | 88 | 1004.4 |
| 20260904094229 | 78 | 295 | 0.0 | 0.0 | 0.00 | 0.00 | 0.00 | 88 | 1004.3 |
| 20260904094129 | 78 | 295 | 0.0 | 0.0 | 0.00 | 0.00 | 0.00 | 88 | 1004.3 |
| 20260904094029 | 78 | 295 | 0.0 | 0.0 | 0.00 | 0.00 | 0.00 | 88 | 1004.3 |
| 20260904093929 | 78 | 295 | 0.0 | 0.0 | 0.00 | 0.00 | 0.00 | 88 | 1004.3 |
| 20260904093829 | 78 | 295 | 0.0 | 0.0 | 0.00 | 0.00 | 0.00 | 88 | 1004.2 |
| 20260904093729 | 78 | 295 | 0.0 | 0.0 | 0.00 | 0.00 | 0.00 | 88 | 1004.2 |
| 20260904093629 | 78 | 295 | 0.0 | 0.0 | 0.00 | 0.00 | 0.00 | 88 | 1004.3 |
| 20260904093529 | 78 | 295 | 0.0 | 0.0 | 0.00 | 0.00 | 0.00 | 88 | 1004.2 |
| 20260904093429 | 78 | 295 | 0.0 | 0.0 | 0.00 | 0.00 | 0.00 | 88 | 1004.2 |
| 20260904093331 | 78 | 295 | 0.0 | 0.0 | 0.00 | 0.00 | 0.00 | 88 | 1004.2 |
| 20260904093229 | 78 | 295 | 0.0 | 0.0 | 0.00 | 0.00 | 0.00 | 88 | 1004.3 |
| 20260904093129 | 79 | 295 | 0.0 | 0.0 | 0.00 | 0.00 | 0.00 | 88 | 1004.3 |
| 20260904093028 | 79 | 295 | 0.0 | 0.0 | 0.00 | 0.00 | 0.00 | 88 | 1004.2 |
| 20260904092931 | 79 | 295 | 0.0 | 0.0 | 0.00 | 0.00 | 0.00 | 88 | 1004.3 |
| 20260904092829 | 79 | 295 | 0.0 | 0.0 | 0.00 | 0.00 | 0.00 | 88 | 1004.2 |
| 20260904092729 | 79 | 295 | 0.0 | 0.0 | 0.00 | 0.00 | 0.00 | 88 | 1004.3 |
| 20260904092630 | 79 | 295 | 0.0 | 0.0 | 0.00 | 0.00 | 0.00 | 88 | 1004.2 |
| 20260904092530 | 79 | 295 | 0.0 | 0.0 | 0.00 | 0.00 | 0.00 | 88 | 1004.2 |
| 20260904092429 | 79 | 295 | 0.0 | 0.0 | 0.00 | 0.00 | 0.00 | 88 | 1004.2 |
| 20260904092328 | 79 | 295 | 0.0 | 0.0 | 0.00 | 0.00 | 0.00 | 88 | 1004.2 |
| 20260904092230 | 79 | 295 | 0.0 | 0.0 | 0.00 | 0.00 | 0.00 | 88 | 1004.2 |
| 20260904092128 | 79 | 295 | 0.0 | 0.0 | 0.00 | 0.00 | 0.00 | 88 | 1004.2 |
| 20260904092031 | 79 | 295 | 0.0 | 0.0 | 0.00 | 0.00 | 0.00 | 88 | 1004.2 |
| 20260904091929 | 79 | 295 | 0.0 | 0.0 | 0.00 | 0.00 | 0.00 | 88 | 1004.2 |
| 20260904091828 | 79 | 295 | 0.0 | 0.0 | 0.00 | 0.00 | 0.00 | 88 | 1004.1 |
| 20260904091729 | 79 | 295 | 0.0 | 0.0 | 0.00 | 0.00 | 0.00 | 87 | 1004.1 |
| 20260904091628 | 79 | 295 | 0.0 | 0.0 | 0.00 | 0.00 | 0.00 | 87 | 1004.1 |
| 20260904091529 | 79 | 295 | 0.0 | 0.0 | 0.00 | 0.00 | 0.00 | 87 | 1004.1 |
| 20260904091428 | 79 | 295 | 0.0 | 0.0 | 0.00 | 0.00 | 0.00 | 87 | 1004.0 |
| 20260904091328 | 79 | 295 | 0.0 | 0.0 | 0.00 | 0.00 | 0.00 | 87 | 1004.0 |
| 20260904091228 | 79 | 295 | 0.0 | 0.0 | 0.00 | 0.00 | 0.00 | 87 | 1004.0 |
| 20260904091131 | 79 | 295 | 0.0 | 0.0 | 0.00 | 0.00 | 0.00 | 87 | 1004.0 |
| 20260904091029 | 79 | 295 | 0.0 | 0.0 | 0.00 | 0.00 | 0.00 | 87 | 1004.0 |
| 20260904090930 | 79 | 295 | 0.0 | 0.0 | 0.00 | 0.00 | 0.00 | 87 | 1004.0 |
| 20260904090828 | 79 | 295 | 0.0 | 0.0 | 0.00 | 0.00 | 0.00 | 87 | 1004.0 |
| 20260904090732 | 79 | 295 | 0.0 | 0.0 | 0.00 | 0.00 | 0.00 | 87 | 1004.0 |
| 20260904090629 | 78 | 295 | 0.0 | 0.0 | 0.00 | 0.00 | 0.00 | 87 | 1004.0 |
| 20260904090529 | 78 | 295 | 0.0 | 0.0 | 0.00 | 0.00 | 0.00 | 87 | 1004.0 |
| 20260904090428 | 78 | 295 | 0.0 | 0.0 | 0.00 | 0.00 | 0.00 | 87 | 1003.9 |
| 20260904090328 | 78 | 295 | 0.0 | 0.0 | 0.00 | 0.00 | 0.00 | 87 | 1003.9 |
| 20260904090229 | 79 | 295 | 0.0 | 0.0 | 0.00 | 0.00 | 0.00 | 87 | 1003.9 |
| 20260904090129 | 79 | 295 | 0.0 | 0.0 | 0.00 | 0.00 | 0.00 | 87 | 1004.0 |
| 20260904090030 | 79 | 295 | 0.0 | 0.0 | 0.00 | 0.00 | 0.00 | 87 | 1003.9 |
| 20260904085931 | 79 | 295 | 0.0 | 0.0 | 0.00 | 0.00 | 0.00 | 87 | 1003.9 |
| 20260904085828 | 79 | 295 | 0.0 | 0.0 | 0.00 | 0.00 | 0.00 | 87 | 1004.0 |
| 20260904085729 | 79 | 295 | 0.0 | 0.0 | 0.00 | 0.00 | 0.00 | 87 | 1003.9 |
| 20260904085628 | 79 | 295 | 0.0 | 0.0 | 0.00 | 0.00 | 0.00 | 87 | 1004.0 |
| 20260904085528 | 79 | 295 | 0.0 | 0.0 | 0.00 | 0.00 | 0.00 | 87 | 1004.0 |
| 20260904085428 | 79 | 295 | 0.0 | 0.0 | 0.00 | 0.00 | 0.00 | 87 | 1004.0 |
| 20260904085330 | 79 | 295 | 0.0 | 0.0 | 0.00 | 0.00 | 0.00 | 87 | 1004.0 |
| 20260904085228 | 79 | 295 | 0.0 | 0.0 | 0.00 | 0.00 | 0.00 | 87 | 1004.0 |
| 20260904085128 | 79 | 295 | 0.0 | 0.0 | 0.00 | 0.00 | 0.00 | 87 | 1004.0 |
| 20260904085028 | 79 | 295 | 0.0 | 0.0 | 0.00 | 0.00 | 0.00 | 87 | 1003.9 |
| 20260904084931 | 79 | 295 | 0.0 | 0.0 | 0.00 | 0.00 | 0.00 | 87 | 1003.9 |
| 20260904084829 | 79 | 295 | 0.0 | 0.0 | 0.00 | 0.00 | 0.00 | 87 | 1004.0 |
| 20260904084729 | 79 | 295 | 0.0 | 0.0 | 0.00 | 0.00 | 0.00 | 87 | 1003.9 |
| 20260904084629 | 79 | 295 | 0.0 | 0.0 | 0.00 | 0.00 | 0.00 | 87 | 1003.9 |
| 20260904084530 | 79 | 295 | 0.0 | 0.0 | 0.00 | 0.00 | 0.00 | 87 | 1004.0 |
| 20260904084428 | 79 | 295 | 0.0 | 0.0 | 0.00 | 0.00 | 0.00 | 87 | 1003.9 |
| 20260904084330 | 79 | 295 | 0.0 | 0.0 | 0.00 | 0.00 | 0.00 | 87 | 1004.0 |
| 20260904084230 | 79 | 295 | 0.0 | 0.0 | 0.00 | 0.00 | 0.00 | 87 | 1004.0 |
| 20260904084131 | 78 | 295 | 0.0 | 0.0 | 0.00 | 0.00 | 0.00 | 87 | 1004.0 |
| 20260904084029 | 78 | 295 | 0.0 | 0.0 | 0.00 | 0.00 | 0.00 | 87 | 1004.0 |
| 20260904083929 | 79 | 295 | 0.0 | 0.0 | 0.00 | 0.00 | 0.00 | 87 | 1004.0 |
| 20260904083829 | 78 | 295 | 0.0 | 0.0 | 0.00 | 0.00 | 0.00 | 87 | 1004.0 |
| 20260904083728 | 78 | 295 | 0.0 | 0.0 | 0.00 | 0.00 | 0.00 | 87 | 1004.0 |
| 20260904083630 | 78 | 295 | 0.0 | 0.0 | 0.00 | 0.00 | 0.00 | 87 | 1003.9 |
| 20260904083528 | 78 | 295 | 0.0 | 0.0 | 0.00 | 0.00 | 0.00 | 87 | 1004.0 |
| 20260904083427 | 78 | 295 | 0.0 | 0.0 | 0.00 | 0.00 | 0.00 | 87 | 1003.9 |
| 20260904083327 | 78 | 295 | 0.0 | 0.0 | 0.00 | 0.00 | 0.00 | 87 | 1004.0 |
| 20260904083229 | 78 | 295 | 0.0 | 0.0 | 0.00 | 0.00 | 0.00 | 87 | 1004.0 |
| 20260904083130 | 78 | 295 | 0.0 | 0.0 | 0.00 | 0.00 | 0.00 | 87 | 1003.9 |
| 20260904083028 | 78 | 295 | 0.0 | 0.0 | 0.00 | 0.00 | 0.00 | 87 | 1003.9 |
| 20260904082927 | 78 | 295 | 0.0 | 0.0 | 0.00 | 0.00 | 0.00 | 87 | 1004.0 |
| 20260904082827 | 78 | 295 | 0.0 | 0.0 | 0.00 | 0.00 | 0.00 | 87 | 1003.9 |
| 20260904082724 | 78 | 295 | 0.0 | 0.0 | 0.00 | 0.00 | 0.00 | 87 | 1004.0 |
| 20260904082607 | 78 | 295 | 0.0 | 0.0 | 0.00 | 0.00 | 0.00 | 87 | 1004.0 |
| 20260904082509 | 78 | 295 | 0.0 | 0.0 | 0.00 | 0.00 | 0.00 | 87 | 1004.0 |
| 20260904082405 | 78 | 295 | 0.0 | 0.0 | 0.00 | 0.00 | 0.00 | 87 | 1004.1 |
| 20260904082306 | 78 | 295 | 0.0 | 0.0 | 0.00 | 0.00 | 0.00 | 87 | 1004.1 |
| 20260904082204 | 78 | 295 | 0.0 | 0.0 | 0.00 | 0.00 | 0.00 | 87 | 1004.1 |
| 20260904082105 | 78 | 295 | 0.0 | 0.0 | 0.00 | 0.00 | 0.00 | 87 | 1004.1 |
| 20260904082004 | 78 | 295 | 0.0 | 0.0 | 0.00 | 0.00 | 0.00 | 87 | 1004.2 |
| 20260904081904 | 78 | 295 | 0.0 | 0.0 | 0.00 | 0.00 | 0.00 | 87 | 1004.2 |
| 20260904081804 | 78 | 295 | 0.0 | 0.0 | 0.00 | 0.00 | 0.00 | 87 | 1004.2 |
| 20260904081706 | 78 | 295 | 0.0 | 0.0 | 0.00 | 0.00 | 0.00 | 87 | 1004.2 |
| 20260904081555 | 78 | 295 | 0.0 | 0.0 | 0.00 | 0.00 | 0.00 | 87 | 1004.2 |
| 20260904081443 | 78 | 295 | 0.0 | 0.0 | 0.00 | 0.00 | 0.00 | 87 | 1004.2 |
| 20260904081344 | 78 | 295 | 0.0 | 0.0 | 0.00 | 0.00 | 0.00 | 87 | 1004.2 |
| 20260904081244 | 78 | 295 | 0.0 | 0.0 | 0.00 | 0.00 | 0.00 | 87 | 1004.2 |
| 20260904081140 | 78 | 295 | 0.0 | 0.0 | 0.00 | 0.00 | 0.00 | 87 | 1004.2 |
| 20260904081041 | 78 | 295 | 0.0 | 0.0 | 0.00 | 0.00 | 0.00 | 87 | 1004.3 |
| 20260904080935 | 78 | 295 | 0.0 | 0.0 | 0.00 | 0.00 | 0.00 | 87 | 1004.3 |
| 20260904080836 | 78 | 295 | 0.0 | 0.0 | 0.00 | 0.00 | 0.00 | 87 | 1004.2 |
| 20260904080735 | 78 | 295 | 0.0 | 0.0 | 0.00 | 0.00 | 0.00 | 87 | 1004.4 |
| 20260904080633 | 78 | 295 | 0.0 | 0.0 | 0.00 | 0.00 | 0.00 | 87 | 1004.4 |
| 20260904080531 | 78 | 295 | 0.0 | 0.0 | 0.00 | 0.00 | 0.00 | 87 | 1004.4 |
| 20260904080431 | 79 | 295 | 0.0 | 0.0 | 0.00 | 0.00 | 0.00 | 87 | 1004.4 |
| 20260904080331 | 79 | 295 | 0.0 | 0.0 | 0.00 | 0.00 | 0.00 | 87 | 1004.4 |
| 20260904080232 | 78 | 295 | 0.0 | 0.0 | 0.00 | 0.00 | 0.00 | 87 | 1004.3 |
| 20260904080131 | 78 | 295 | 0.0 | 0.0 | 0.00 | 0.00 | 0.00 | 87 | 1004.3 |
| 20260904080030 | 78 | 295 | 0.0 | 0.0 | 0.00 | 0.00 | 0.00 | 87 | 1004.4 |
| 20260904075923 | 78 | 295 | 0.0 | 0.0 | 0.00 | 0.00 | 0.00 | 87 | 1004.4 |
| 20260904075818 | 79 | 295 | 0.0 | 0.0 | 0.00 | 0.00 | 0.00 | 87 | 1004.4 |
| 20260904075716 | 78 | 295 | 0.0 | 0.0 | 0.00 | 0.00 | 0.00 | 87 | 1004.4 |
| 20260904075615 | 78 | 295 | 0.0 | 0.0 | 0.00 | 0.00 | 0.00 | 87 | 1004.4 |
| 20260904075519 | 79 | 295 | 0.0 | 0.0 | 0.00 | 0.00 | 0.00 | 87 | 1004.4 |
| 20260904075414 | 79 | 295 | 0.0 | 0.0 | 0.00 | 0.00 | 0.00 | 87 | 1004.3 |
| 20260904075312 | 79 | 295 | 0.0 | 0.0 | 0.00 | 0.00 | 0.00 | 87 | 1004.4 |
| 20260904075209 | 79 | 295 | 0.0 | 0.0 | 0.00 | 0.00 | 0.00 | 87 | 1004.4 |
| 20260904075104 | 78 | 295 | 0.0 | 0.0 | 0.00 | 0.00 | 0.00 | 86 | 1004.4 |
| 20260904075006 | 79 | 295 | 0.0 | 0.0 | 0.00 | 0.00 | 0.00 | 86 | 1004.4 |
| 20260904074903 | 79 | 295 | 0.0 | 0.0 | 0.00 | 0.00 | 0.00 | 86 | 1004.5 |
| 20260904074803 | 79 | 295 | 0.0 | 0.0 | 0.00 | 0.00 | 0.00 | 87 | 1004.5 |
| 20260904074703 | 79 | 295 | 0.0 | 0.0 | 0.00 | 0.00 | 0.00 | 87 | 1004.5 |
| 20260904074602 | 79 | 295 | 0.0 | 0.0 | 0.00 | 0.00 | 0.00 | 87 | 1004.5 |
| 20260904074505 | 79 | 295 | 0.0 | 0.0 | 0.00 | 0.00 | 0.00 | 87 | 1004.4 |
| 20260904074402 | 79 | 295 | 0.0 | 0.0 | 0.00 | 0.00 | 0.00 | 87 | 1004.4 |
| 20260904074303 | 79 | 295 | 0.0 | 0.0 | 0.00 | 0.00 | 0.00 | 86 | 1004.4 |
| 20260904074203 | 78 | 295 | 0.0 | 0.0 | 0.00 | 0.00 | 0.00 | 86 | 1004.4 |
| 20260904074102 | 79 | 295 | 0.0 | 0.0 | 0.00 | 0.00 | 0.00 | 86 | 1004.4 |
| 20260904074004 | 79 | 295 | 0.0 | 0.0 | 0.00 | 0.00 | 0.00 | 86 | 1004.4 |
| 20260904073904 | 79 | 295 | 0.0 | 0.0 | 0.00 | 0.00 | 0.00 | 86 | 1004.4 |
| 20260904073802 | 79 | 295 | 0.0 | 0.0 | 0.00 | 0.00 | 0.00 | 86 | 1004.5 |
| 20260904073704 | 79 | 295 | 0.0 | 0.0 | 0.00 | 0.00 | 0.00 | 86 | 1004.5 |
| 20260904073603 | 79 | 295 | 0.0 | 0.0 | 0.00 | 0.00 | 0.00 | 86 | 1004.4 |
| 20260904073504 | 79 | 295 | 0.0 | 0.0 | 0.00 | 0.00 | 0.00 | 86 | 1004.5 |
| 20260904073405 | 79 | 295 | 0.0 | 0.0 | 0.00 | 0.00 | 0.00 | 86 | 1004.5 |
| 20260904073303 | 79 | 295 | 0.0 | 0.0 | 0.00 | 0.00 | 0.00 | 86 | 1004.5 |
| 20260904073204 | 79 | 295 | 0.0 | 0.0 | 0.00 | 0.00 | 0.00 | 87 | 1004.5 |
| 20260904073103 | 79 | 295 | 0.0 | 0.0 | 0.00 | 0.00 | 0.00 | 87 | 1004.5 |
| 20260904073002 | 79 | 295 | 0.0 | 0.0 | 0.00 | 0.00 | 0.00 | 87 | 1004.6 |
| 20260904072904 | 79 | 295 | 0.0 | 0.0 | 0.00 | 0.00 | 0.00 | 87 | 1004.6 |
| 20260904072803 | 79 | 295 | 0.0 | 0.0 | 0.00 | 0.00 | 0.00 | 86 | 1004.5 |
| 20260904072704 | 79 | 295 | 0.0 | 0.0 | 0.00 | 0.00 | 0.00 | 86 | 1004.5 |
| 20260904072603 | 79 | 295 | 0.0 | 0.0 | 0.00 | 0.00 | 0.00 | 86 | 1004.6 |
| 20260904072503 | 79 | 295 | 0.0 | 0.0 | 0.00 | 0.00 | 0.00 | 86 | 1004.6 |
| 20260904072404 | 79 | 295 | 0.0 | 0.0 | 0.00 | 0.00 | 0.00 | 86 | 1004.7 |
| 20260904072305 | 79 | 295 | 0.0 | 0.0 | 0.00 | 0.00 | 0.00 | 86 | 1004.7 |
| 20260904072159 | 79 | 295 | 0.0 | 0.0 | 0.00 | 0.00 | 0.00 | 86 | 1004.7 |
| 20260904072052 | 79 | 295 | 0.0 | 0.0 | 0.00 | 0.00 | 0.00 | 86 | 1004.7 |
| 20260904071955 | 79 | 295 | 0.0 | 0.0 | 0.00 | 0.00 | 0.00 | 86 | 1004.6 |
| 20260904071856 | 79 | 295 | 0.0 | 0.0 | 0.00 | 0.00 | 0.00 | 86 | 1004.8 |
| 20260904071746 | 79 | 295 | 0.0 | 0.0 | 0.00 | 0.00 | 0.00 | 86 | 1004.7 |
| 20260904071644 | 79 | 295 | 0.0 | 0.0 | 0.00 | 0.00 | 0.00 | 86 | 1004.7 |
| 20260904071542 | 79 | 295 | 0.0 | 0.0 | 0.00 | 0.00 | 0.00 | 86 | 1004.7 |
| 20260904071439 | 79 | 295 | 0.0 | 0.0 | 0.00 | 0.00 | 0.00 | 86 | 1004.7 |
| 20260904071339 | 79 | 295 | 0.0 | 0.0 | 0.00 | 0.00 | 0.00 | 86 | 1004.7 |
| 20260904071233 | 79 | 295 | 0.0 | 0.0 | 0.00 | 0.00 | 0.00 | 86 | 1004.7 |
| 20260904071131 | 79 | 295 | 0.0 | 0.0 | 0.00 | 0.00 | 0.00 | 86 | 1004.7 |
| 20260904071028 | 79 | 295 | 0.0 | 0.0 | 0.00 | 0.00 | 0.00 | 86 | 1004.7 |
| 20260904070927 | 79 | 295 | 0.0 | 0.0 | 0.00 | 0.00 | 0.00 | 86 | 1004.6 |
| 20260904070826 | 79 | 295 | 0.0 | 0.0 | 0.00 | 0.00 | 0.00 | 86 | 1004.7 |
| 20260904070725 | 79 | 295 | 0.0 | 0.0 | 0.00 | 0.00 | 0.00 | 86 | 1004.8 |
| 20260904070628 | 79 | 295 | 0.0 | 0.0 | 0.00 | 0.00 | 0.00 | 86 | 1004.7 |
| 20260904070527 | 79 | 295 | 0.0 | 0.0 | 0.00 | 0.00 | 0.00 | 86 | 1004.7 |
| 20260904070426 | 79 | 295 | 0.0 | 0.0 | 0.00 | 0.00 | 0.00 | 86 | 1004.8 |
| 20260904070329 | 79 | 295 | 0.0 | 0.0 | 0.00 | 0.00 | 0.00 | 86 | 1004.7 |
| 20260904070229 | 79 | 295 | 0.0 | 0.0 | 0.00 | 0.00 | 0.00 | 86 | 1004.7 |
| 20260904070127 | 79 | 295 | 0.0 | 0.0 | 0.00 | 0.00 | 0.00 | 86 | 1004.7 |
| 20260904070026 | 79 | 295 | 0.0 | 0.0 | 0.00 | 0.00 | 0.00 | 86 | 1004.7 |
| 20260904065928 | 79 | 295 | 0.0 | 0.0 | 0.00 | 0.00 | 0.00 | 86 | 1004.7 |
| 20260904065830 | 79 | 295 | 0.0 | 0.0 | 0.00 | 0.00 | 0.00 | 86 | 1004.7 |
| 20260904065727 | 79 | 295 | 0.0 | 0.0 | 0.00 | 0.00 | 0.00 | 86 | 1004.8 |
| 20260904065627 | 79 | 295 | 0.0 | 0.0 | 0.00 | 0.00 | 0.00 | 86 | 1004.8 |
| 20260904065526 | 79 | 295 | 0.0 | 0.0 | 0.00 | 0.00 | 0.00 | 86 | 1004.7 |
| 20260904065425 | 79 | 295 | 0.0 | 0.0 | 0.00 | 0.00 | 0.00 | 86 | 1004.7 |
| 20260904065328 | 79 | 295 | 0.0 | 0.0 | 0.00 | 0.00 | 0.00 | 86 | 1004.7 |
| 20260904065227 | 79 | 295 | 0.0 | 0.0 | 0.00 | 0.00 | 0.00 | 86 | 1004.8 |
| 20260904065127 | 79 | 295 | 0.0 | 0.0 | 0.00 | 0.00 | 0.00 | 86 | 1004.7 |
| 20260904065026 | 79 | 295 | 0.0 | 0.0 | 0.00 | 0.00 | 0.00 | 86 | 1004.7 |
| 20260904064927 | 79 | 295 | 0.0 | 0.0 | 0.00 | 0.00 | 0.00 | 86 | 1004.7 |
| 20260904064826 | 79 | 295 | 0.0 | 0.0 | 0.00 | 0.00 | 0.00 | 86 | 1004.7 |
| 20260904064726 | 79 | 295 | 0.0 | 0.0 | 0.00 | 0.00 | 0.00 | 86 | 1004.7 |
| 20260904064627 | 79 | 295 | 0.0 | 0.0 | 0.00 | 0.00 | 0.00 | 86 | 1004.6 |
| 20260904064529 | 79 | 295 | 0.0 | 0.0 | 0.00 | 0.00 | 0.00 | 86 | 1004.6 |
| 20260904064426 | 79 | 295 | 0.0 | 0.0 | 0.00 | 0.00 | 0.00 | 86 | 1004.6 |
| 20260904064325 | 79 | 295 | 0.0 | 0.0 | 0.00 | 0.00 | 0.00 | 86 | 1004.6 |
| 20260904064226 | 79 | 295 | 0.0 | 0.0 | 0.00 | 0.00 | 0.00 | 86 | 1004.6 |
| 20260904064126 | 79 | 295 | 0.0 | 0.0 | 0.00 | 0.00 | 0.00 | 86 | 1004.6 |
| 20260904064029 | 79 | 295 | 0.0 | 0.0 | 0.00 | 0.00 | 0.00 | 86 | 1004.5 |
| 20260904063926 | 79 | 295 | 0.0 | 0.0 | 0.00 | 0.00 | 0.00 | 86 | 1004.6 |
| 20260904063825 | 79 | 295 | 0.0 | 0.0 | 0.00 | 0.00 | 0.00 | 86 | 1004.5 |
| 20260904063725 | 79 | 295 | 0.0 | 0.0 | 0.00 | 0.00 | 0.00 | 86 | 1004.5 |
| 20260904063628 | 79 | 295 | 0.0 | 0.0 | 0.00 | 0.00 | 0.00 | 86 | 1004.5 |
| 20260904063527 | 79 | 295 | 0.0 | 0.0 | 0.00 | 0.00 | 0.00 | 86 | 1004.5 |
| 20260904063425 | 79 | 295 | 0.0 | 0.0 | 0.00 | 0.00 | 0.00 | 86 | 1004.5 |
| 20260904063326 | 79 | 295 | 0.0 | 0.0 | 0.00 | 0.00 | 0.00 | 86 | 1004.6 |
| 20260904063225 | 79 | 295 | 0.0 | 0.0 | 0.00 | 0.00 | 0.00 | 86 | 1004.5 |
| 20260904063125 | 79 | 295 | 0.0 | 0.0 | 0.00 | 0.00 | 0.00 | 86 | 1004.6 |
| 20260904063025 | 79 | 295 | 0.0 | 0.0 | 0.00 | 0.00 | 0.00 | 86 | 1004.5 |
| 20260904062926 | 79 | 295 | 0.0 | 0.0 | 0.00 | 0.00 | 0.00 | 86 | 1004.5 |
| 20260904062824 | 79 | 295 | 0.0 | 0.0 | 0.00 | 0.00 | 0.00 | 86 | 1004.5 |
| 20260904062724 | 79 | 295 | 0.0 | 0.0 | 0.00 | 0.00 | 0.00 | 86 | 1004.5 |
| 20260904062627 | 79 | 295 | 0.0 | 0.0 | 0.00 | 0.00 | 0.00 | 86 | 1004.5 |
| 20260904062526 | 79 | 295 | 0.0 | 0.0 | 0.00 | 0.00 | 0.00 | 86 | 1004.5 |
| 20260904062425 | 79 | 295 | 0.0 | 0.0 | 0.00 | 0.00 | 0.00 | 86 | 1004.6 |
| 20260904062324 | 79 | 295 | 0.0 | 0.0 | 0.00 | 0.00 | 0.00 | 86 | 1004.6 |
| 20260904062226 | 79 | 295 | 0.0 | 0.0 | 0.00 | 0.00 | 0.00 | 86 | 1004.6 |
| 20260904062125 | 79 | 295 | 0.0 | 0.0 | 0.00 | 0.00 | 0.00 | 86 | 1004.6 |
| 20260904062027 | 79 | 295 | 0.0 | 0.0 | 0.00 | 0.00 | 0.00 | 86 | 1004.6 |
| 20260904061924 | 79 | 295 | 0.0 | 0.0 | 0.00 | 0.00 | 0.00 | 86 | 1004.6 |
| 20260904061826 | 79 | 295 | 0.0 | 0.0 | 0.00 | 0.00 | 0.00 | 86 | 1004.6 |
| 20260904061727 | 79 | 295 | 0.0 | 0.0 | 0.00 | 0.00 | 0.00 | 86 | 1004.6 |
| 20260904061626 | 79 | 295 | 0.0 | 0.0 | 0.00 | 0.00 | 0.00 | 86 | 1004.6 |
| 20260904061524 | 79 | 295 | 0.0 | 0.0 | 0.00 | 0.00 | 0.00 | 86 | 1004.7 |
| 20260904061424 | 79 | 295 | 0.0 | 0.0 | 0.00 | 0.00 | 0.00 | 86 | 1004.7 |
| 20260904061328 | 79 | 295 | 0.0 | 0.0 | 0.00 | 0.00 | 0.00 | 86 | 1004.7 |
| 20260904061224 | 79 | 295 | 0.0 | 0.0 | 0.00 | 0.00 | 0.00 | 86 | 1004.7 |
| 20260904061125 | 79 | 295 | 0.0 | 0.0 | 0.00 | 0.00 | 0.00 | 86 | 1004.7 |
| 20260904061025 | 79 | 295 | 0.0 | 0.0 | 0.00 | 0.00 | 0.00 | 86 | 1004.7 |
| 20260904060927 | 79 | 295 | 0.0 | 0.0 | 0.00 | 0.00 | 0.00 | 86 | 1004.7 |
| 20260904060826 | 79 | 295 | 0.0 | 0.0 | 0.00 | 0.00 | 0.00 | 86 | 1004.8 |
| 20260904060724 | 79 | 295 | 0.0 | 0.0 | 0.00 | 0.00 | 0.00 | 86 | 1004.7 |
| 20260904060626 | 79 | 295 | 0.0 | 0.0 | 0.00 | 0.00 | 0.00 | 86 | 1004.7 |
| 20260904060524 | 79 | 295 | 0.0 | 0.0 | 0.00 | 0.00 | 0.00 | 86 | 1004.8 |
| 20260904060425 | 79 | 295 | 0.0 | 0.0 | 0.00 | 0.00 | 0.00 | 86 | 1004.7 |
| 20260904060324 | 79 | 295 | 0.0 | 0.0 | 0.00 | 0.00 | 0.00 | 86 | 1004.7 |
| 20260904060224 | 79 | 295 | 0.0 | 0.0 | 0.00 | 0.00 | 0.00 | 86 | 1004.7 |
| 20260904060126 | 79 | 295 | 0.0 | 0.0 | 0.00 | 0.00 | 0.00 | 86 | 1004.7 |
| 20260904060026 | 79 | 295 | 0.0 | 0.0 | 0.00 | 0.00 | 0.00 | 86 | 1004.7 |
| 20260904055926 | 79 | 295 | 0.0 | 0.0 | 0.00 | 0.00 | 0.00 | 86 | 1004.7 |
| 20260904055826 | 79 | 295 | 0.0 | 0.0 | 0.00 | 0.00 | 0.00 | 86 | 1004.7 |
| 20260904055725 | 79 | 295 | 0.0 | 0.0 | 0.00 | 0.00 | 0.00 | 86 | 1004.8 |
| 20260904055624 | 79 | 295 | 0.0 | 0.0 | 0.00 | 0.00 | 0.00 | 86 | 1004.8 |
| 20260904055527 | 79 | 295 | 0.0 | 0.0 | 0.00 | 0.00 | 0.00 | 86 | 1004.8 |
| 20260904055424 | 79 | 295 | 0.0 | 0.0 | 0.00 | 0.00 | 0.00 | 86 | 1004.8 |
| 20260904055325 | 79 | 295 | 0.0 | 0.0 | 0.00 | 0.00 | 0.00 | 86 | 1004.7 |
| 20260904055224 | 79 | 295 | 0.0 | 0.0 | 0.00 | 0.00 | 0.00 | 86 | 1004.7 |
| 20260904055125 | 79 | 295 | 0.0 | 0.0 | 0.00 | 0.00 | 0.00 | 86 | 1004.7 |
| 20260904055026 | 79 | 295 | 0.0 | 0.0 | 0.00 | 0.00 | 0.00 | 86 | 1004.7 |
| 20260904054924 | 79 | 295 | 0.0 | 0.0 | 0.00 | 0.00 | 0.00 | 86 | 1004.7 |
| 20260904054823 | 79 | 295 | 0.0 | 0.0 | 0.00 | 0.00 | 0.00 | 85 | 1004.7 |
| 20260904054725 | 79 | 295 | 0.0 | 0.0 | 0.00 | 0.00 | 0.00 | 85 | 1004.6 |
| 20260904054627 | 79 | 295 | 0.0 | 0.0 | 0.00 | 0.00 | 0.00 | 85 | 1004.7 |
| 20260904054524 | 79 | 295 | 0.0 | 0.0 | 0.00 | 0.00 | 0.00 | 85 | 1004.6 |
| 20260904054424 | 79 | 295 | 0.0 | 0.0 | 0.00 | 0.00 | 0.00 | 85 | 1004.6 |
| 20260904054324 | 79 | 295 | 0.0 | 0.0 | 0.00 | 0.00 | 0.00 | 85 | 1004.6 |
| 20260904054227 | 79 | 295 | 0.0 | 0.0 | 0.00 | 0.00 | 0.00 | 85 | 1004.7 |
| 20260904054125 | 79 | 295 | 0.0 | 0.0 | 0.00 | 0.00 | 0.00 | 85 | 1004.6 |
| 20260904054026 | 79 | 295 | 0.0 | 0.0 | 0.00 | 0.00 | 0.00 | 85 | 1004.6 |
| 20260904053924 | 79 | 295 | 0.0 | 0.0 | 0.00 | 0.00 | 0.00 | 85 | 1004.6 |
| 20260904053826 | 79 | 295 | 0.0 | 0.0 | 0.00 | 0.00 | 0.00 | 85 | 1004.6 |
| 20260904053724 | 79 | 295 | 0.0 | 0.0 | 0.00 | 0.00 | 0.00 | 85 | 1004.6 |
| 20260904053624 | 79 | 295 | 0.0 | 0.0 | 0.00 | 0.00 | 0.00 | 85 | 1004.7 |
| 20260904053525 | 79 | 295 | 0.0 | 0.0 | 0.00 | 0.00 | 0.00 | 86 | 1004.6 |
| 20260904053424 | 79 | 295 | 0.0 | 0.0 | 0.00 | 0.00 | 0.00 | 85 | 1004.6 |
| 20260904053326 | 79 | 295 | 0.0 | 0.0 | 0.00 | 0.00 | 0.00 | 85 | 1004.5 |
| 20260904053223 | 79 | 295 | 0.0 | 0.0 | 0.00 | 0.00 | 0.00 | 85 | 1004.6 |
| 20260904053125 | 79 | 295 | 0.0 | 0.0 | 0.00 | 0.00 | 0.00 | 85 | 1004.5 |
| 20260904053026 | 79 | 295 | 0.0 | 0.0 | 0.00 | 0.00 | 0.00 | 85 | 1004.5 |
| 20260904052924 | 79 | 295 | 0.0 | 0.0 | 0.00 | 0.00 | 0.00 | 85 | 1004.6 |
| 20260904052825 | 79 | 295 | 0.0 | 0.0 | 0.00 | 0.00 | 0.00 | 85 | 1004.6 |
| 20260904052724 | 79 | 295 | 0.0 | 0.0 | 0.00 | 0.00 | 0.00 | 85 | 1004.5 |
| 20260904052623 | 79 | 295 | 0.0 | 0.0 | 0.00 | 0.00 | 0.00 | 85 | 1004.5 |
| 20260904052523 | 79 | 295 | 0.0 | 0.0 | 0.00 | 0.00 | 0.00 | 85 | 1004.6 |
| 20260904052424 | 79 | 295 | 0.0 | 0.0 | 0.00 | 0.00 | 0.00 | 85 | 1004.5 |
| 20260904052325 | 79 | 295 | 0.0 | 0.0 | 0.00 | 0.00 | 0.00 | 85 | 1004.5 |
| 20260904052224 | 79 | 295 | 0.0 | 0.0 | 0.00 | 0.00 | 0.00 | 85 | 1004.5 |
| 20260904052125 | 79 | 295 | 0.0 | 0.0 | 0.00 | 0.00 | 0.00 | 85 | 1004.5 |
| 20260904052025 | 79 | 295 | 0.0 | 0.0 | 0.00 | 0.00 | 0.00 | 85 | 1004.5 |
| 20260904051925 | 79 | 295 | 0.0 | 0.0 | 0.00 | 0.00 | 0.00 | 85 | 1004.5 |
| 20260904051824 | 79 | 295 | 0.0 | 0.0 | 0.00 | 0.00 | 0.00 | 85 | 1004.5 |
| 20260904051724 | 79 | 295 | 0.0 | 0.0 | 0.00 | 0.00 | 0.00 | 85 | 1004.6 |
| 20260904051623 | 79 | 295 | 0.0 | 0.0 | 0.00 | 0.00 | 0.00 | 85 | 1004.5 |
| 20260904051526 | 79 | 295 | 0.0 | 0.0 | 0.00 | 0.00 | 0.00 | 85 | 1004.5 |
| 20260904051423 | 79 | 295 | 0.0 | 0.0 | 0.00 | 0.00 | 0.00 | 85 | 1004.5 |
| 20260904051324 | 79 | 295 | 0.0 | 0.0 | 0.00 | 0.00 | 0.00 | 85 | 1004.5 |
| 20260904051223 | 79 | 295 | 0.0 | 0.0 | 0.00 | 0.00 | 0.00 | 85 | 1004.5 |
| 20260904051123 | 79 | 295 | 0.0 | 0.0 | 0.00 | 0.00 | 0.00 | 85 | 1004.5 |
| 20260904051027 | 79 | 295 | 0.0 | 0.0 | 0.00 | 0.00 | 0.00 | 85 | 1004.5 |
| 20260904050925 | 79 | 295 | 0.0 | 0.0 | 0.00 | 0.01 | 0.00 | 85 | 1004.5 |
| 20260904050825 | 79 | 295 | 0.0 | 0.0 | 0.00 | 0.01 | 0.00 | 85 | 1004.5 |
| 20260904050727 | 79 | 295 | 0.0 | 0.0 | 0.00 | 0.01 | 0.00 | 85 | 1004.6 |
| 20260904050624 | 79 | 295 | 0.0 | 0.0 | 0.00 | 0.01 | 0.00 | 85 | 1004.6 |
| 20260904050524 | 79 | 295 | 0.0 | 0.0 | 0.00 | 0.01 | 0.00 | 85 | 1004.6 |
| 20260904050420 | 79 | 295 | 0.0 | 0.0 | 0.00 | 0.01 | 0.00 | 85 | 1004.5 |
| 20260904050321 | 79 | 295 | 0.0 | 0.0 | 0.00 | 0.01 | 0.00 | 85 | 1004.5 |
| 20260904050210 | 79 | 295 | 0.0 | 0.0 | 0.00 | 0.01 | 0.00 | 85 | 1004.5 |
| 20260904050111 | 79 | 295 | 0.0 | 0.0 | 0.00 | 0.02 | 0.00 | 85 | 1004.5 |
| 20260904050007 | 79 | 295 | 0.0 | 0.0 | 0.00 | 0.02 | 0.00 | 85 | 1004.5 |
| 20260904045906 | 79 | 295 | 0.0 | 0.0 | 0.00 | 0.02 | 0.02 | 85 | 1004.5 |
| 20260904045805 | 79 | 295 | 0.0 | 0.0 | 0.00 | 0.02 | 0.02 | 85 | 1004.5 |
| 20260904045700 | 79 | 295 | 0.0 | 0.0 | 0.00 | 0.02 | 0.02 | 85 | 1004.4 |
| 20260904045557 | 79 | 295 | 0.0 | 0.0 | 0.00 | 0.02 | 0.02 | 85 | 1004.4 |
| 20260904045452 | 79 | 295 | 0.0 | 0.0 | 0.00 | 0.03 | 0.02 | 85 | 1004.4 |
| 20260904045350 | 79 | 295 | 0.0 | 0.0 | 0.00 | 0.03 | 0.02 | 85 | 1004.5 |
| 20260904045246 | 79 | 295 | 0.0 | 0.0 | 0.00 | 0.03 | 0.02 | 85 | 1004.4 |
| 20260904045144 | 79 | 295 | 0.0 | 0.0 | 0.00 | 0.03 | 0.02 | 85 | 1004.5 |
| 20260904045035 | 79 | 295 | 0.0 | 0.0 | 0.00 | 0.03 | 0.02 | 85 | 1004.5 |
| 20260904044935 | 79 | 295 | 0.0 | 0.0 | 0.00 | 0.03 | 0.02 | 85 | 1004.5 |
| 20260904044835 | 79 | 295 | 0.0 | 0.0 | 0.00 | 0.03 | 0.02 | 85 | 1004.4 |
| 20260904044734 | 79 | 295 | 0.0 | 0.0 | 0.00 | 0.03 | 0.02 | 85 | 1004.5 |
| 20260904044633 | 79 | 295 | 0.0 | 0.0 | 0.00 | 0.03 | 0.02 | 85 | 1004.5 |
| 20260904044534 | 79 | 295 | 0.0 | 0.0 | 0.00 | 0.04 | 0.02 | 85 | 1004.5 |
| 20260904044433 | 79 | 295 | 0.0 | 0.0 | 0.00 | 0.04 | 0.02 | 85 | 1004.5 |
| 20260904044333 | 79 | 295 | 0.0 | 0.0 | 0.00 | 0.04 | 0.02 | 85 | 1004.5 |
| 20260904044233 | 79 | 295 | 0.0 | 0.0 | 0.00 | 0.04 | 0.02 | 85 | 1004.5 |
| 20260904044133 | 79 | 295 | 0.0 | 0.0 | 0.00 | 0.04 | 0.02 | 85 | 1004.5 |
| 20260904044034 | 79 | 295 | 0.0 | 0.0 | 0.00 | 0.04 | 0.02 | 85 | 1004.5 |
| 20260904043936 | 79 | 295 | 0.0 | 0.0 | 0.00 | 0.04 | 0.02 | 85 | 1004.5 |
| 20260904043834 | 79 | 295 | 0.0 | 0.0 | 0.00 | 0.04 | 0.02 | 85 | 1004.4 |
| 20260904043732 | 79 | 295 | 0.0 | 0.0 | 0.00 | 0.05 | 0.02 | 85 | 1004.5 |
| 20260904043633 | 79 | 295 | 0.0 | 0.0 | 0.00 | 0.05 | 0.02 | 85 | 1004.5 |
| 20260904043533 | 79 | 295 | 0.0 | 0.0 | 0.00 | 0.05 | 0.02 | 85 | 1004.4 |
| 20260904043434 | 79 | 295 | 0.0 | 0.0 | 0.00 | 0.05 | 0.02 | 85 | 1004.5 |
| 20260904043331 | 79 | 295 | 0.0 | 0.0 | 0.00 | 0.05 | 0.02 | 85 | 1004.5 |
| 20260904043233 | 79 | 295 | 0.0 | 0.0 | 0.00 | 0.06 | 0.02 | 85 | 1004.5 |
| 20260904043134 | 79 | 295 | 0.0 | 0.0 | 0.00 | 0.06 | 0.02 | 85 | 1004.6 |
| 20260904043032 | 79 | 295 | 0.0 | 0.0 | 0.00 | 0.06 | 0.02 | 85 | 1004.5 |
| 20260904042932 | 79 | 295 | 0.0 | 0.0 | 0.00 | 0.06 | 0.02 | 85 | 1004.5 |
| 20260904042832 | 79 | 295 | 0.0 | 0.0 | 0.00 | 0.06 | 0.02 | 85 | 1004.5 |
| 20260904042734 | 79 | 295 | 0.0 | 0.0 | 0.00 | 0.06 | 0.02 | 85 | 1004.5 |
| 20260904042635 | 79 | 295 | 0.0 | 0.0 | 0.00 | 0.06 | 0.02 | 85 | 1004.6 |
| 20260904042532 | 79 | 295 | 0.0 | 0.0 | 0.00 | 0.06 | 0.02 | 85 | 1004.5 |
| 20260904042433 | 79 | 295 | 0.0 | 0.0 | 0.00 | 0.06 | 0.02 | 85 | 1004.5 |
| 20260904042333 | 79 | 295 | 0.0 | 0.0 | 0.00 | 0.06 | 0.02 | 85 | 1004.5 |
| 20260904042235 | 79 | 295 | 0.0 | 0.0 | 0.00 | 0.06 | 0.02 | 85 | 1004.5 |
| 20260904042133 | 79 | 295 | 0.0 | 0.0 | 0.00 | 0.06 | 0.02 | 85 | 1004.5 |
| 20260904042032 | 79 | 295 | 0.0 | 0.0 | 0.00 | 0.06 | 0.02 | 85 | 1004.5 |
| 20260904041932 | 79 | 295 | 0.0 | 0.0 | 0.00 | 0.07 | 0.02 | 85 | 1004.5 |
| 20260904041832 | 79 | 295 | 0.0 | 0.0 | 0.00 | 0.07 | 0.02 | 85 | 1004.5 |
| 20260904041734 | 79 | 295 | 0.0 | 0.0 | 0.00 | 0.07 | 0.02 | 85 | 1004.4 |
| 20260904041632 | 79 | 295 | 0.0 | 0.0 | 0.00 | 0.07 | 0.02 | 85 | 1004.5 |
| 20260904041532 | 79 | 295 | 0.0 | 0.0 | 0.00 | 0.07 | 0.02 | 84 | 1004.4 |
| 20260904041433 | 79 | 295 | 0.0 | 0.0 | 0.00 | 0.07 | 0.02 | 84 | 1004.4 |
| 20260904041325 | 79 | 295 | 0.0 | 0.0 | 0.00 | 0.07 | 0.02 | 84 | 1004.4 |
| 20260904041222 | 79 | 295 | 0.0 | 0.0 | 0.00 | 0.07 | 0.02 | 84 | 1004.4 |
| 20260904041122 | 79 | 295 | 0.0 | 0.0 | 0.00 | 0.07 | 0.02 | 84 | 1004.4 |
| 20260904041023 | 79 | 295 | 0.0 | 0.0 | 0.00 | 0.07 | 0.02 | 84 | 1004.4 |
| 20260904040924 | 79 | 295 | 0.0 | 0.0 | 0.00 | 0.07 | 0.02 | 84 | 1004.4 |
| 20260904040823 | 79 | 295 | 0.0 | 0.0 | 0.00 | 0.07 | 0.02 | 84 | 1004.4 |
| 20260904040723 | 79 | 295 | 0.0 | 0.0 | 0.00 | 0.07 | 0.02 | 84 | 1004.5 |
| 20260904040623 | 79 | 295 | 0.0 | 0.0 | 0.00 | 0.07 | 0.02 | 84 | 1004.6 |
| 20260904040523 | 79 | 295 | 0.0 | 0.0 | 0.00 | 0.07 | 0.02 | 84 | 1004.5 |
| 20260904040424 | 79 | 295 | 0.0 | 0.0 | 0.00 | 0.07 | 0.02 | 84 | 1004.5 |
| 20260904040322 | 79 | 295 | 0.0 | 0.0 | 0.00 | 0.07 | 0.02 | 84 | 1004.5 |
| 20260904040222 | 79 | 295 | 0.0 | 0.0 | 0.00 | 0.07 | 0.02 | 84 | 1004.5 |
| 20260904040121 | 79 | 295 | 0.0 | 0.0 | 0.00 | 0.07 | 0.02 | 84 | 1004.5 |
| 20260904040023 | 79 | 295 | 0.0 | 0.0 | 0.00 | 0.07 | 0.02 | 84 | 1004.5 |
| 20260904035922 | 79 | 295 | 0.0 | 0.0 | 0.00 | 0.07 | 0.02 | 84 | 1004.5 |
| 20260904035821 | 79 | 295 | 0.0 | 0.0 | 0.00 | 0.07 | 0.02 | 84 | 1004.5 |
| 20260904035722 | 79 | 295 | 0.0 | 0.0 | 0.00 | 0.07 | 0.02 | 84 | 1004.5 |
| 20260904035623 | 79 | 295 | 0.0 | 0.0 | 0.00 | 0.07 | 0.02 | 84 | 1004.5 |
| 20260904035522 | 79 | 295 | 0.0 | 0.0 | 0.00 | 0.07 | 0.02 | 84 | 1004.6 |
| 20260904035422 | 79 | 295 | 0.0 | 0.0 | 0.00 | 0.07 | 0.02 | 84 | 1004.5 |
| 20260904035321 | 79 | 295 | 0.0 | 0.0 | 0.00 | 0.07 | 0.02 | 84 | 1004.6 |
| 20260904035223 | 79 | 295 | 0.0 | 0.0 | 0.00 | 0.07 | 0.02 | 84 | 1004.6 |
| 20260904035121 | 79 | 295 | 0.0 | 0.0 | 0.00 | 0.07 | 0.02 | 84 | 1004.6 |
| 20260904035023 | 79 | 295 | 0.0 | 0.0 | 0.00 | 0.07 | 0.02 | 84 | 1004.5 |
| 20260904034921 | 79 | 295 | 0.0 | 0.0 | 0.00 | 0.07 | 0.02 | 84 | 1004.6 |
| 20260904034821 | 79 | 295 | 0.0 | 0.0 | 0.00 | 0.07 | 0.02 | 84 | 1004.5 |
| 20260904034723 | 79 | 295 | 0.0 | 0.0 | 0.00 | 0.07 | 0.02 | 84 | 1004.6 |
| 20260904034624 | 79 | 295 | 0.0 | 0.0 | 0.00 | 0.07 | 0.02 | 84 | 1004.6 |
| 20260904034522 | 79 | 295 | 0.0 | 0.0 | 0.00 | 0.07 | 0.02 | 84 | 1004.6 |
| 20260904034422 | 79 | 295 | 0.0 | 0.0 | 0.00 | 0.07 | 0.02 | 84 | 1004.6 |
| 20260904034322 | 79 | 295 | 0.0 | 0.0 | 0.00 | 0.07 | 0.02 | 84 | 1004.6 |
| 20260904034225 | 79 | 295 | 0.0 | 0.0 | 0.00 | 0.07 | 0.02 | 84 | 1004.6 |
| 20260904034122 | 79 | 295 | 0.0 | 0.0 | 0.00 | 0.07 | 0.02 | 84 | 1004.6 |
| 20260904034021 | 79 | 295 | 0.0 | 0.0 | 0.00 | 0.07 | 0.02 | 84 | 1004.6 |
| 20260904033921 | 79 | 295 | 0.0 | 0.0 | 0.00 | 0.07 | 0.02 | 84 | 1004.6 |
| 20260904033821 | 79 | 295 | 0.0 | 0.0 | 0.00 | 0.07 | 0.02 | 84 | 1004.5 |
| 20260904033722 | 79 | 295 | 0.0 | 0.0 | 0.00 | 0.07 | 0.02 | 84 | 1004.6 |
| 20260904033621 | 79 | 295 | 0.0 | 0.0 | 0.00 | 0.07 | 0.02 | 84 | 1004.6 |
| 20260904033521 | 79 | 295 | 0.0 | 0.0 | 0.00 | 0.07 | 0.02 | 84 | 1004.5 |
| 20260904033422 | 79 | 295 | 0.0 | 0.0 | 0.00 | 0.07 | 0.02 | 84 | 1004.5 |
| 20260904033324 | 79 | 295 | 0.0 | 0.0 | 0.00 | 0.07 | 0.02 | 84 | 1004.5 |
| 20260904033220 | 79 | 295 | 0.0 | 0.0 | 0.00 | 0.07 | 0.02 | 84 | 1004.6 |
| 20260904033121 | 79 | 295 | 0.0 | 0.0 | 0.00 | 0.07 | 0.02 | 84 | 1004.5 |
| 20260904033020 | 79 | 295 | 0.0 | 0.0 | 0.00 | 0.07 | 0.02 | 84 | 1004.5 |
| 20260904032920 | 79 | 295 | 0.0 | 0.0 | 0.00 | 0.07 | 0.02 | 84 | 1004.5 |
| 20260904032818 | 79 | 295 | 0.0 | 0.0 | 0.00 | 0.07 | 0.02 | 84 | 1004.5 |
| 20260904032719 | 79 | 295 | 0.0 | 0.0 | 0.00 | 0.07 | 0.02 | 84 | 1004.5 |
| 20260904032616 | 79 | 295 | 0.0 | 0.0 | 0.00 | 0.07 | 0.02 | 84 | 1004.5 |
| 20260904032515 | 79 | 295 | 0.0 | 0.0 | 0.00 | 0.07 | 0.02 | 84 | 1004.5 |
| 20260904032415 | 79 | 295 | 0.0 | 0.0 | 0.00 | 0.07 | 0.02 | 84 | 1004.5 |
| 20260904032315 | 80 | 295 | 0.0 | 0.0 | 0.00 | 0.07 | 0.02 | 84 | 1004.5 |
| 20260904032214 | 80 | 295 | 0.0 | 0.0 | 0.00 | 0.07 | 0.02 | 84 | 1004.5 |
| 20260904032116 | 80 | 295 | 0.0 | 0.0 | 0.00 | 0.07 | 0.02 | 84 | 1004.5 |
| 20260904032008 | 80 | 295 | 0.0 | 0.0 | 0.00 | 0.07 | 0.02 | 84 | 1004.4 |
| 20260904031908 | 80 | 295 | 0.0 | 0.0 | 0.00 | 0.07 | 0.02 | 84 | 1004.5 |
| 20260904031808 | 80 | 295 | 0.0 | 0.0 | 0.00 | 0.07 | 0.02 | 84 | 1004.5 |
| 20260904031707 | 80 | 295 | 0.0 | 0.0 | 0.00 | 0.07 | 0.02 | 84 | 1004.5 |
| 20260904031604 | 80 | 295 | 0.0 | 0.0 | 0.00 | 0.07 | 0.02 | 84 | 1004.4 |
| 20260904031505 | 80 | 295 | 0.0 | 0.0 | 0.00 | 0.07 | 0.02 | 84 | 1004.4 |
| 20260904031403 | 79 | 295 | 0.0 | 0.0 | 0.00 | 0.07 | 0.02 | 84 | 1004.5 |
| 20260904031305 | 79 | 295 | 0.0 | 0.0 | 0.00 | 0.07 | 0.02 | 84 | 1004.5 |
| 20260904031203 | 79 | 295 | 0.0 | 0.0 | 0.00 | 0.07 | 0.02 | 84 | 1004.5 |
| 20260904031103 | 79 | 295 | 0.0 | 0.0 | 0.00 | 0.07 | 0.02 | 84 | 1004.5 |
| 20260904031003 | 79 | 295 | 0.0 | 0.0 | 0.00 | 0.07 | 0.02 | 84 | 1004.5 |
| 20260904030903 | 80 | 295 | 0.0 | 0.0 | 0.00 | 0.07 | 0.02 | 83 | 1004.5 |
| 20260904030803 | 80 | 295 | 0.0 | 0.0 | 0.00 | 0.07 | 0.02 | 83 | 1004.5 |
| 20260904030703 | 80 | 295 | 0.0 | 0.0 | 0.00 | 0.07 | 0.02 | 83 | 1004.5 |
| 20260904030602 | 80 | 295 | 0.0 | 0.0 | 0.00 | 0.07 | 0.02 | 83 | 1004.5 |
| 20260904030503 | 80 | 295 | 0.0 | 0.0 | 0.00 | 0.07 | 0.02 | 83 | 1004.5 |
| 20260904030402 | 80 | 295 | 0.0 | 0.0 | 0.00 | 0.07 | 0.02 | 83 | 1004.5 |
| 20260904030305 | 80 | 295 | 0.0 | 0.0 | 0.00 | 0.07 | 0.02 | 83 | 1004.5 |
| 20260904030132 | 80 | 295 | 0.0 | 0.0 | 0.00 | 0.07 | 0.02 | 83 | 1004.5 |
| 20260904030033 | 80 | 295 | 0.0 | 0.0 | 0.00 | 0.07 | 0.02 | 83 | 1004.5 |
| 20260904025931 | 80 | 295 | 0.0 | 0.0 | 0.00 | 0.07 | 0.02 | 83 | 1004.5 |
| 20260904025833 | 80 | 295 | 0.0 | 0.0 | 0.00 | 0.07 | 0.02 | 83 | 1004.5 |
| 20260904025732 | 80 | 295 | 0.0 | 0.0 | 0.00 | 0.07 | 0.02 | 83 | 1004.5 |
| 20260904025632 | 80 | 295 | 0.0 | 0.0 | 0.00 | 0.07 | 0.02 | 83 | 1004.6 |
| 20260904025533 | 80 | 295 | 0.0 | 0.0 | 0.00 | 0.07 | 0.02 | 83 | 1004.5 |
| 20260904025433 | 80 | 295 | 0.0 | 0.0 | 0.00 | 0.07 | 0.02 | 83 | 1004.6 |
| 20260904025333 | 80 | 295 | 0.0 | 0.0 | 0.00 | 0.07 | 0.02 | 83 | 1004.5 |
| 20260904025233 | 80 | 295 | 0.0 | 0.0 | 0.00 | 0.07 | 0.02 | 83 | 1004.5 |
| 20260904025133 | 80 | 295 | 0.0 | 0.0 | 0.00 | 0.07 | 0.02 | 83 | 1004.5 |
| 20260904025033 | 80 | 295 | 0.0 | 0.0 | 0.00 | 0.07 | 0.02 | 83 | 1004.4 |
| 20260904024932 | 80 | 295 | 0.0 | 0.0 | 0.00 | 0.07 | 0.02 | 83 | 1004.4 |
| 20260904024832 | 80 | 295 | 0.0 | 0.0 | 0.00 | 0.07 | 0.02 | 83 | 1004.4 |
| 20260904024733 | 80 | 295 | 0.0 | 0.0 | 0.00 | 0.07 | 0.02 | 83 | 1004.4 |
| 20260904024627 | 80 | 295 | 0.0 | 0.0 | 0.00 | 0.07 | 0.02 | 83 | 1004.3 |
| 20260904024520 | 80 | 295 | 0.0 | 0.0 | 0.00 | 0.07 | 0.02 | 83 | 1004.4 |
| 20260904024421 | 80 | 295 | 0.0 | 0.0 | 0.00 | 0.07 | 0.02 | 83 | 1004.3 |
| 20260904024320 | 80 | 295 | 0.0 | 0.0 | 0.00 | 0.07 | 0.02 | 83 | 1004.4 |
| 20260904024220 | 80 | 295 | 0.0 | 0.0 | 0.00 | 0.07 | 0.02 | 83 | 1004.2 |
| 20260904024119 | 80 | 295 | 0.0 | 0.0 | 0.00 | 0.07 | 0.02 | 83 | 1004.3 |
| 20260904024021 | 80 | 295 | 0.0 | 0.0 | 0.00 | 0.07 | 0.02 | 83 | 1004.3 |
| 20260904023920 | 80 | 295 | 0.0 | 0.0 | 0.00 | 0.07 | 0.02 | 83 | 1004.2 |
| 20260904023821 | 80 | 295 | 0.0 | 0.0 | 0.00 | 0.07 | 0.02 | 83 | 1004.2 |
| 20260904023721 | 80 | 295 | 0.0 | 0.0 | 0.00 | 0.07 | 0.02 | 83 | 1004.2 |
| 20260904023618 | 80 | 295 | 0.0 | 0.0 | 0.00 | 0.07 | 0.02 | 82 | 1004.2 |
| 20260904023510 | 80 | 295 | 0.0 | 0.0 | 0.00 | 0.07 | 0.02 | 82 | 1004.2 |
| 20260904023412 | 80 | 295 | 0.0 | 0.0 | 0.00 | 0.07 | 0.02 | 82 | 1004.2 |
| 20260904023306 | 80 | 295 | 0.0 | 0.0 | 0.00 | 0.07 | 0.02 | 82 | 1004.2 |
| 20260904023209 | 80 | 295 | 0.0 | 0.0 | 0.00 | 0.07 | 0.02 | 82 | 1004.2 |
| 20260904023105 | 80 | 295 | 0.0 | 0.0 | 0.00 | 0.07 | 0.02 | 82 | 1004.2 |
| 20260904023004 | 80 | 295 | 0.0 | 0.0 | 0.00 | 0.07 | 0.02 | 82 | 1004.2 |
| 20260904022904 | 80 | 295 | 0.0 | 0.0 | 0.00 | 0.07 | 0.02 | 82 | 1004.1 |
| 20260904022805 | 80 | 295 | 0.0 | 0.0 | 0.00 | 0.07 | 0.02 | 82 | 1004.1 |
| 20260904022701 | 80 | 295 | 0.0 | 0.0 | 0.00 | 0.07 | 0.02 | 82 | 1004.1 |
| 20260904022602 | 80 | 295 | 0.0 | 0.0 | 0.00 | 0.07 | 0.02 | 82 | 1004.1 |
| 20260904022503 | 80 | 295 | 0.0 | 0.0 | 0.00 | 0.07 | 0.02 | 82 | 1004.1 |
| 20260904022402 | 80 | 295 | 0.0 | 0.0 | 0.00 | 0.07 | 0.02 | 82 | 1004.1 |
| 20260904022305 | 80 | 295 | 0.0 | 0.0 | 0.00 | 0.07 | 0.02 | 82 | 1004.1 |
| 20260904022202 | 80 | 295 | 0.0 | 0.0 | 0.00 | 0.07 | 0.02 | 82 | 1004.0 |
| 20260904022102 | 80 | 295 | 0.0 | 0.0 | 0.00 | 0.07 | 0.02 | 82 | 1004.0 |
| 20260904022008 | 80 | 295 | 0.0 | 0.0 | 0.00 | 0.07 | 0.02 | 82 | 1004.0 |
| 20260904021903 | 80 | 295 | 0.0 | 0.0 | 0.00 | 0.07 | 0.02 | 82 | 1004.0 |
| 20260904021803 | 80 | 295 | 0.0 | 0.0 | 0.00 | 0.07 | 0.02 | 82 | 1004.0 |
| 20260904021702 | 80 | 295 | 0.0 | 0.0 | 0.00 | 0.07 | 0.02 | 82 | 1004.0 |
| 20260904021602 | 80 | 295 | 0.0 | 0.0 | 0.00 | 0.07 | 0.02 | 82 | 1004.0 |
| 20260904021505 | 80 | 295 | 0.0 | 0.0 | 0.00 | 0.07 | 0.02 | 82 | 1004.0 |
| 20260904021403 | 80 | 295 | 0.0 | 0.0 | 0.00 | 0.07 | 0.02 | 82 | 1004.1 |
| 20260904021302 | 80 | 295 | 0.0 | 0.0 | 0.00 | 0.07 | 0.02 | 82 | 1004.0 |
| 20260904021204 | 80 | 295 | 0.0 | 0.0 | 0.00 | 0.07 | 0.02 | 82 | 1003.9 |
| 20260904021105 | 80 | 295 | 0.0 | 0.0 | 0.00 | 0.07 | 0.02 | 82 | 1004.0 |
| 20260904021004 | 80 | 295 | 0.0 | 0.0 | 0.00 | 0.07 | 0.02 | 82 | 1004.0 |
| 20260904020904 | 80 | 295 | 0.0 | 0.0 | 0.00 | 0.07 | 0.02 | 82 | 1004.0 |
| 20260904020802 | 80 | 295 | 0.0 | 0.0 | 0.00 | 0.07 | 0.02 | 82 | 1003.9 |
| 20260904020704 | 80 | 295 | 0.0 | 0.0 | 0.00 | 0.07 | 0.02 | 82 | 1004.0 |
| 20260904020608 | 80 | 295 | 0.0 | 0.0 | 0.00 | 0.07 | 0.02 | 82 | 1004.0 |
| 20260904020503 | 80 | 295 | 0.0 | 0.0 | 0.00 | 0.07 | 0.02 | 82 | 1004.0 |
| 20260904020404 | 80 | 295 | 0.0 | 0.0 | 0.00 | 0.07 | 0.02 | 82 | 1003.9 |
| 20260904020304 | 80 | 295 | 0.0 | 0.0 | 0.00 | 0.07 | 0.02 | 82 | 1003.8 |
| 20260904020205 | 80 | 295 | 0.0 | 0.0 | 0.00 | 0.07 | 0.02 | 82 | 1003.9 |
| 20260904020103 | 80 | 295 | 0.0 | 0.0 | 0.00 | 0.07 | 0.02 | 82 | 1003.9 |
| 20260904020003 | 80 | 295 | 0.0 | 0.0 | 0.00 | 0.07 | 0.02 | 82 | 1003.8 |
| 20260904015903 | 80 | 295 | 0.0 | 0.0 | 0.00 | 0.07 | 0.02 | 82 | 1003.9 |
| 20260904015803 | 80 | 295 | 0.0 | 0.0 | 0.00 | 0.07 | 0.02 | 82 | 1003.8 |
| 20260904015702 | 80 | 295 | 0.0 | 0.0 | 0.00 | 0.07 | 0.02 | 82 | 1003.8 |
| 20260904015604 | 80 | 295 | 0.0 | 0.0 | 0.00 | 0.07 | 0.02 | 82 | 1003.9 |
| 20260904015504 | 80 | 295 | 0.0 | 0.0 | 0.00 | 0.07 | 0.02 | 82 | 1003.9 |
| 20260904015403 | 80 | 295 | 0.0 | 0.0 | 0.00 | 0.07 | 0.02 | 82 | 1003.9 |
| 20260904015306 | 80 | 295 | 0.0 | 0.0 | 0.00 | 0.07 | 0.02 | 82 | 1003.8 |
| 20260904015202 | 80 | 295 | 0.0 | 0.0 | 0.00 | 0.07 | 0.02 | 82 | 1003.8 |
| 20260904015104 | 80 | 295 | 0.0 | 0.0 | 0.00 | 0.07 | 0.02 | 82 | 1003.8 |
| 20260904015002 | 80 | 295 | 0.0 | 0.0 | 0.00 | 0.07 | 0.02 | 82 | 1003.8 |
| 20260904014903 | 80 | 295 | 0.0 | 0.0 | 0.00 | 0.07 | 0.02 | 82 | 1003.7 |
| 20260904014803 | 80 | 295 | 0.0 | 0.0 | 0.00 | 0.07 | 0.02 | 82 | 1003.8 |
| 20260904014702 | 80 | 295 | 0.0 | 0.0 | 0.00 | 0.07 | 0.02 | 81 | 1003.7 |
| 20260904014602 | 80 | 295 | 0.0 | 0.0 | 0.00 | 0.07 | 0.02 | 81 | 1003.7 |
| 20260904014504 | 80 | 295 | 0.0 | 0.0 | 0.00 | 0.07 | 0.02 | 81 | 1003.7 |
| 20260904014403 | 80 | 295 | 0.0 | 0.0 | 0.00 | 0.07 | 0.02 | 81 | 1003.6 |
| 20260904014303 | 80 | 295 | 0.0 | 0.0 | 0.00 | 0.07 | 0.02 | 81 | 1003.6 |
| 20260904014202 | 80 | 295 | 0.0 | 0.0 | 0.00 | 0.07 | 0.02 | 81 | 1003.6 |
| 20260904014102 | 80 | 295 | 0.0 | 0.0 | 0.00 | 0.07 | 0.02 | 81 | 1003.5 |
| 20260904014004 | 80 | 295 | 0.0 | 0.0 | 0.00 | 0.07 | 0.02 | 81 | 1003.6 |
| 20260904013904 | 81 | 295 | 0.0 | 0.0 | 0.00 | 0.07 | 0.02 | 81 | 1003.5 |
| 20260904013802 | 81 | 295 | 0.0 | 0.0 | 0.00 | 0.07 | 0.02 | 81 | 1003.5 |
| 20260904013702 | 81 | 295 | 0.0 | 0.0 | 0.00 | 0.07 | 0.02 | 81 | 1003.5 |
| 20260904013604 | 81 | 295 | 0.0 | 0.0 | 0.00 | 0.07 | 0.02 | 81 | 1003.5 |
| 20260904013503 | 81 | 295 | 0.0 | 0.0 | 0.00 | 0.07 | 0.02 | 81 | 1003.5 |
| 20260904013404 | 81 | 295 | 0.0 | 0.0 | 0.00 | 0.07 | 0.02 | 81 | 1003.5 |
| 20260904013301 | 81 | 295 | 0.0 | 0.0 | 0.00 | 0.07 | 0.02 | 81 | 1003.5 |
| 20260904013203 | 81 | 295 | 0.0 | 0.0 | 0.00 | 0.07 | 0.02 | 81 | 1003.4 |
| 20260904013103 | 81 | 295 | 0.0 | 0.0 | 0.00 | 0.07 | 0.02 | 81 | 1003.5 |
| 20260904013004 | 81 | 295 | 0.0 | 0.0 | 0.00 | 0.07 | 0.02 | 81 | 1003.4 |
| 20260904012905 | 81 | 295 | 0.0 | 0.0 | 0.00 | 0.07 | 0.02 | 81 | 1003.4 |
| 20260904012802 | 81 | 295 | 0.0 | 0.0 | 0.00 | 0.07 | 0.02 | 81 | 1003.5 |
| 20260904012703 | 81 | 295 | 0.0 | 0.0 | 0.00 | 0.07 | 0.02 | 81 | 1003.4 |
| 20260904012603 | 81 | 295 | 0.0 | 0.0 | 0.00 | 0.07 | 0.02 | 81 | 1003.4 |
| 20260904012503 | 81 | 295 | 0.0 | 0.0 | 0.00 | 0.07 | 0.02 | 81 | 1003.4 |
| 20260904012405 | 81 | 295 | 0.0 | 0.0 | 0.00 | 0.07 | 0.02 | 81 | 1003.4 |
| 20260904012306 | 81 | 295 | 0.0 | 0.0 | 0.00 | 0.07 | 0.02 | 81 | 1003.3 |
| 20260904012204 | 81 | 295 | 0.0 | 0.0 | 0.00 | 0.07 | 0.02 | 81 | 1003.4 |
| 20260904012104 | 81 | 295 | 0.0 | 0.0 | 0.00 | 0.07 | 0.02 | 81 | 1003.4 |
| 20260904012003 | 81 | 295 | 0.0 | 0.0 | 0.00 | 0.07 | 0.02 | 81 | 1003.4 |
| 20260904011904 | 81 | 295 | 0.0 | 0.0 | 0.00 | 0.07 | 0.02 | 81 | 1003.3 |
| 20260904011804 | 81 | 295 | 0.0 | 0.0 | 0.00 | 0.07 | 0.02 | 81 | 1003.3 |
| 20260904011702 | 81 | 295 | 0.0 | 0.0 | 0.00 | 0.07 | 0.02 | 81 | 1003.4 |
| 20260904011602 | 81 | 295 | 0.0 | 0.0 | 0.00 | 0.07 | 0.02 | 81 | 1003.3 |
| 20260904011501 | 81 | 295 | 0.0 | 0.0 | 0.00 | 0.07 | 0.02 | 81 | 1003.4 |
| 20260904011359 | 81 | 295 | 0.0 | 0.0 | 0.00 | 0.07 | 0.02 | 81 | 1003.4 |
| 20260904011303 | 81 | 295 | 0.0 | 0.0 | 0.00 | 0.07 | 0.02 | 81 | 1003.4 |
| 20260904011201 | 81 | 295 | 0.0 | 0.0 | 0.00 | 0.07 | 0.02 | 81 | 1003.4 |
| 20260904011053 | 81 | 295 | 0.0 | 0.0 | 0.00 | 0.07 | 0.02 | 81 | 1003.5 |
| 20260904010949 | 81 | 295 | 0.0 | 0.0 | 0.00 | 0.07 | 0.02 | 81 | 1003.4 |
| 20260904010843 | 81 | 295 | 0.0 | 0.0 | 0.00 | 0.07 | 0.02 | 81 | 1003.3 |
| 20260904010744 | 81 | 295 | 0.0 | 0.0 | 0.00 | 0.07 | 0.02 | 81 | 1003.4 |
| 20260904010641 | 81 | 295 | 0.0 | 0.0 | 0.00 | 0.07 | 0.02 | 81 | 1003.4 |
| 20260904010539 | 81 | 295 | 0.0 | 0.0 | 0.00 | 0.07 | 0.02 | 81 | 1003.4 |
| 20260904010434 | 81 | 295 | 0.0 | 0.0 | 0.00 | 0.07 | 0.02 | 81 | 1003.4 |
| 20260904010332 | 81 | 295 | 0.0 | 0.0 | 0.00 | 0.07 | 0.02 | 81 | 1003.4 |
| 20260904010224 | 81 | 295 | 0.0 | 0.0 | 0.00 | 0.07 | 0.02 | 81 | 1003.4 |
| 20260904010119 | 81 | 295 | 0.0 | 0.0 | 0.00 | 0.07 | 0.02 | 81 | 1003.4 |
| 20260904010020 | 81 | 295 | 0.0 | 0.0 | 0.00 | 0.07 | 0.02 | 81 | 1003.4 |
| 20260904005917 | 81 | 295 | 0.0 | 0.0 | 0.00 | 0.07 | 0.02 | 80 | 1003.4 |
| 20260904005818 | 81 | 295 | 0.0 | 0.0 | 0.00 | 0.07 | 0.02 | 80 | 1003.4 |
| 20260904005718 | 81 | 295 | 0.0 | 0.0 | 0.00 | 0.07 | 0.02 | 80 | 1003.5 |
| 20260904005618 | 81 | 295 | 0.0 | 0.0 | 0.00 | 0.07 | 0.02 | 80 | 1003.4 |
| 20260904005519 | 82 | 295 | 0.0 | 0.0 | 0.00 | 0.07 | 0.02 | 80 | 1003.4 |
| 20260904005418 | 82 | 295 | 0.0 | 0.0 | 0.00 | 0.07 | 0.02 | 80 | 1003.4 |
| 20260904005318 | 82 | 295 | 0.0 | 0.0 | 0.00 | 0.07 | 0.02 | 80 | 1003.4 |
| 20260904005218 | 82 | 295 | 0.0 | 0.0 | 0.00 | 0.07 | 0.02 | 80 | 1003.3 |
| 20260904005118 | 82 | 295 | 0.0 | 0.0 | 0.00 | 0.07 | 0.02 | 80 | 1003.4 |
| 20260904005018 | 82 | 295 | 0.0 | 0.0 | 0.00 | 0.07 | 0.02 | 80 | 1003.2 |
| 20260904004919 | 82 | 295 | 0.0 | 0.0 | 0.00 | 0.07 | 0.02 | 80 | 1003.4 |
| 20260904004817 | 82 | 295 | 0.0 | 0.0 | 0.00 | 0.07 | 0.02 | 80 | 1003.4 |
| 20260904004718 | 82 | 295 | 0.0 | 0.0 | 0.00 | 0.07 | 0.02 | 80 | 1003.4 |
| 20260904004618 | 82 | 295 | 0.0 | 0.0 | 0.00 | 0.07 | 0.02 | 80 | 1003.4 |
| 20260904004520 | 82 | 295 | 0.0 | 0.0 | 0.00 | 0.07 | 0.02 | 80 | 1003.4 |
| 20260904004417 | 82 | 295 | 0.0 | 0.0 | 0.00 | 0.07 | 0.02 | 80 | 1003.4 |
| 20260904004318 | 82 | 295 | 0.0 | 0.0 | 0.00 | 0.07 | 0.02 | 80 | 1003.4 |
| 20260904004217 | 82 | 295 | 0.0 | 0.0 | 0.00 | 0.07 | 0.02 | 80 | 1003.4 |
| 20260904004119 | 82 | 295 | 0.0 | 0.0 | 0.00 | 0.07 | 0.02 | 80 | 1003.4 |
| 20260904004018 | 82 | 295 | 0.0 | 0.0 | 0.00 | 0.07 | 0.02 | 80 | 1003.5 |
| 20260904003918 | 82 | 295 | 0.0 | 0.0 | 0.00 | 0.07 | 0.02 | 80 | 1003.4 |
| 20260904003817 | 82 | 295 | 0.0 | 0.0 | 0.00 | 0.07 | 0.02 | 80 | 1003.4 |
| 20260904003719 | 82 | 295 | 0.0 | 0.0 | 0.00 | 0.07 | 0.02 | 80 | 1003.4 |
| 20260904003618 | 82 | 295 | 0.0 | 0.0 | 0.00 | 0.07 | 0.02 | 80 | 1003.4 |
| 20260904003517 | 82 | 295 | 0.0 | 0.0 | 0.00 | 0.07 | 0.02 | 80 | 1003.4 |
| 20260904003416 | 82 | 295 | 0.0 | 0.0 | 0.00 | 0.07 | 0.02 | 80 | 1003.4 |
| 20260904003319 | 82 | 295 | 0.0 | 0.0 | 0.00 | 0.07 | 0.02 | 80 | 1003.4 |
| 20260904003217 | 82 | 295 | 0.0 | 0.0 | 0.00 | 0.07 | 0.02 | 80 | 1003.5 |
| 20260904003117 | 82 | 295 | 0.0 | 0.0 | 0.00 | 0.07 | 0.02 | 80 | 1003.5 |
| 20260904003016 | 82 | 295 | 0.0 | 0.0 | 0.00 | 0.07 | 0.02 | 80 | 1003.5 |
| 20260904002917 | 82 | 295 | 0.0 | 0.0 | 0.00 | 0.07 | 0.02 | 80 | 1003.5 |
| 20260904002818 | 82 | 295 | 0.0 | 0.0 | 0.00 | 0.07 | 0.02 | 80 | 1003.5 |
| 20260904002719 | 82 | 295 | 0.0 | 0.0 | 0.00 | 0.07 | 0.02 | 80 | 1003.6 |
| 20260904002618 | 82 | 295 | 0.0 | 0.0 | 0.00 | 0.07 | 0.02 | 80 | 1003.6 |
| 20260904002517 | 82 | 295 | 0.0 | 0.0 | 0.00 | 0.07 | 0.02 | 80 | 1003.5 |
| 20260904002417 | 82 | 295 | 0.0 | 0.0 | 0.00 | 0.07 | 0.02 | 80 | 1003.6 |
| 20260904002317 | 82 | 295 | 0.0 | 0.0 | 0.00 | 0.07 | 0.02 | 80 | 1003.5 |
| 20260904002216 | 82 | 295 | 0.0 | 0.0 | 0.00 | 0.07 | 0.02 | 80 | 1003.6 |
| 20260904002116 | 82 | 295 | 0.0 | 0.0 | 0.00 | 0.07 | 0.02 | 80 | 1003.6 |
| 20260904002017 | 82 | 295 | 0.0 | 0.0 | 0.00 | 0.07 | 0.02 | 80 | 1003.7 |
| 20260904001916 | 82 | 295 | 0.0 | 0.0 | 0.00 | 0.07 | 0.02 | 80 | 1003.5 |
| 20260904001816 | 82 | 295 | 0.0 | 0.0 | 0.00 | 0.07 | 0.02 | 80 | 1003.6 |
| 20260904001716 | 82 | 295 | 0.0 | 0.0 | 0.00 | 0.07 | 0.02 | 80 | 1003.6 |
| 20260904001617 | 82 | 295 | 0.0 | 0.0 | 0.00 | 0.07 | 0.02 | 80 | 1003.6 |
| 20260904001516 | 82 | 295 | 0.0 | 0.0 | 0.00 | 0.07 | 0.02 | 80 | 1003.7 |
| 20260904001417 | 82 | 295 | 0.0 | 0.0 | 0.00 | 0.07 | 0.02 | 80 | 1003.7 |
| 20260904001317 | 82 | 295 | 0.0 | 0.0 | 0.00 | 0.07 | 0.02 | 80 | 1003.7 |
| 20260904001217 | 82 | 295 | 0.0 | 0.0 | 0.00 | 0.07 | 0.02 | 80 | 1003.6 |
| 20260904001118 | 82 | 295 | 0.0 | 0.0 | 0.00 | 0.07 | 0.02 | 80 | 1003.6 |
| 20260904001017 | 82 | 295 | 0.0 | 0.0 | 0.00 | 0.07 | 0.02 | 80 | 1003.7 |
| 20260904000918 | 82 | 295 | 0.0 | 0.0 | 0.00 | 0.07 | 0.02 | 79 | 1003.7 |
| 20260904000818 | 82 | 295 | 0.0 | 0.0 | 0.00 | 0.08 | 0.02 | 79 | 1003.7 |
| 20260904000718 | 83 | 295 | 0.0 | 0.0 | 0.00 | 0.08 | 0.02 | 79 | 1003.7 |
| 20260904000618 | 83 | 295 | 0.0 | 0.0 | 0.00 | 0.08 | 0.02 | 79 | 1003.6 |
| 20260904000516 | 82 | 295 | 0.0 | 0.0 | 0.00 | 0.08 | 0.02 | 79 | 1003.7 |
| 20260904000417 | 83 | 295 | 0.0 | 0.0 | 0.00 | 0.08 | 0.02 | 79 | 1003.7 |
| 20260904000318 | 82 | 295 | 0.0 | 0.0 | 0.00 | 0.08 | 0.02 | 79 | 1003.6 |
| 20260904000218 | 83 | 295 | 0.0 | 0.0 | 0.00 | 0.09 | 0.02 | 79 | 1003.7 |
| 20260904000117 | 83 | 295 | 0.0 | 0.0 | 0.00 | 0.09 | 0.02 | 79 | 1003.7 |
| 20260904000018 | 83 | 295 | 0.0 | 0.0 | 0.00 | 0.10 | 0.02 | 79 | 1003.7 |
| 20260903235918 | 83 | 295 | 0.0 | 0.0 | 0.00 | 0.12 | 0.02 | 79 | 1003.7 |
| 20260903235816 | 83 | 295 | 0.0 | 0.0 | 0.00 | 0.12 | 0.02 | 79 | 1003.8 |
| 20260903235718 | 83 | 295 | 0.0 | 0.0 | 0.00 | 0.12 | 0.02 | 79 | 1003.7 |
| 20260903235616 | 83 | 295 | 0.0 | 0.0 | 0.00 | 0.12 | 0.02 | 79 | 1003.8 |
| 20260903235518 | 83 | 295 | 0.0 | 0.0 | 0.00 | 0.12 | 0.02 | 79 | 1003.8 |
| 20260903235418 | 83 | 295 | 0.0 | 0.0 | 0.00 | 0.12 | 0.02 | 79 | 1003.7 |
| 20260903235318 | 83 | 295 | 0.0 | 0.0 | 0.00 | 0.12 | 0.02 | 79 | 1003.7 |
| 20260903235217 | 83 | 295 | 0.0 | 0.0 | 0.00 | 0.12 | 0.02 | 79 | 1003.7 |
| 20260903235115 | 83 | 295 | 0.0 | 0.0 | 0.00 | 0.12 | 0.02 | 79 | 1003.7 |
| 20260903235018 | 83 | 295 | 0.0 | 0.0 | 0.00 | 0.12 | 0.02 | 79 | 1003.7 |
| 20260903234917 | 83 | 295 | 0.0 | 0.0 | 0.00 | 0.12 | 0.02 | 79 | 1003.7 |
| 20260903234820 | 83 | 321 | 0.0 | 0.0 | 0.00 | 0.12 | 0.02 | 79 | 1003.8 |
| 20260903234718 | 83 | 321 | 0.0 | 0.0 | 0.00 | 0.12 | 0.02 | 79 | 1003.8 |
| 20260903234617 | 83 | 321 | 0.0 | 0.0 | 0.00 | 0.12 | 0.02 | 79 | 1003.8 |
| 20260903234518 | 83 | 321 | 0.0 | 0.0 | 0.00 | 0.12 | 0.02 | 79 | 1003.8 |
| 20260903234419 | 83 | 321 | 0.0 | 0.0 | 0.00 | 0.12 | 0.02 | 79 | 1003.8 |
| 20260903234316 | 83 | 321 | 0.0 | 1.0 | 0.00 | 0.12 | 0.02 | 79 | 1003.8 |
| 20260903234217 | 83 | 323 | 0.0 | 1.0 | 0.00 | 0.12 | 0.02 | 79 | 1003.8 |
| 20260903234117 | 83 | 323 | 0.0 | 1.0 | 0.00 | 0.12 | 0.02 | 79 | 1003.8 |
| 20260903234019 | 83 | 323 | 0.0 | 1.0 | 0.00 | 0.12 | 0.02 | 79 | 1003.8 |
| 20260903233916 | 83 | 324 | 0.0 | 1.0 | 0.00 | 0.12 | 0.02 | 79 | 1003.9 |
| 20260903233817 | 83 | 323 | 0.0 | 1.0 | 0.00 | 0.12 | 0.02 | 79 | 1003.9 |
| 20260903233716 | 83 | 327 | 0.0 | 1.0 | 0.00 | 0.12 | 0.02 | 79 | 1003.9 |
| 20260903233617 | 83 | 327 | 0.0 | 1.0 | 0.00 | 0.12 | 0.02 | 79 | 1003.9 |
| 20260903233515 | 83 | 327 | 0.0 | 1.0 | 0.00 | 0.12 | 0.02 | 79 | 1003.9 |
| 20260903233417 | 83 | 327 | 0.0 | 1.0 | 0.00 | 0.12 | 0.02 | 79 | 1003.9 |
| 20260903233316 | 83 | 327 | 0.0 | 1.0 | 0.00 | 0.12 | 0.02 | 79 | 1003.9 |
| 20260903233216 | 83 | 327 | 0.0 | 1.0 | 0.00 | 0.12 | 0.02 | 79 | 1003.9 |
| 20260903233116 | 83 | 327 | 0.0 | 1.0 | 0.00 | 0.12 | 0.02 | 79 | 1003.9 |
| 20260903233016 | 83 | 307 | 0.0 | 1.0 | 0.00 | 0.12 | 0.02 | 79 | 1003.9 |
| 20260903232916 | 83 | 238 | 0.0 | 0.0 | 0.00 | 0.12 | 0.02 | 79 | 1004.0 |
| 20260903232815 | 83 | 238 | 0.0 | 0.0 | 0.00 | 0.12 | 0.02 | 79 | 1004.0 |
| 20260903232715 | 83 | 238 | 0.0 | 0.0 | 0.00 | 0.12 | 0.02 | 79 | 1003.9 |
| 20260903232616 | 83 | 238 | 0.0 | 0.0 | 0.00 | 0.12 | 0.02 | 79 | 1004.0 |
| 20260903232516 | 83 | 238 | 0.0 | 0.0 | 0.00 | 0.12 | 0.02 | 79 | 1003.9 |
| 20260903232416 | 83 | 238 | 0.0 | 0.0 | 0.00 | 0.12 | 0.02 | 79 | 1004.0 |
| 20260903232316 | 83 | 238 | 0.0 | 0.0 | 0.00 | 0.12 | 0.02 | 79 | 1004.0 |
| 20260903232215 | 83 | 238 | 0.0 | 0.0 | 0.00 | 0.12 | 0.02 | 79 | 1004.0 |
| 20260903232117 | 83 | 238 | 0.0 | 0.0 | 0.00 | 0.12 | 0.02 | 78 | 1003.9 |
| 20260903232016 | 83 | 238 | 0.0 | 0.0 | 0.00 | 0.12 | 0.02 | 78 | 1004.0 |
| 20260903231915 | 83 | 238 | 0.0 | 0.0 | 0.00 | 0.12 | 0.02 | 78 | 1004.0 |
| 20260903231815 | 83 | 238 | 0.0 | 0.0 | 0.00 | 0.12 | 0.02 | 78 | 1004.0 |
| 20260903231717 | 83 | 238 | 0.0 | 0.0 | 0.00 | 0.12 | 0.02 | 78 | 1004.0 |
| 20260903231615 | 83 | 238 | 0.0 | 0.0 | 0.00 | 0.12 | 0.02 | 78 | 1004.1 |
| 20260903231516 | 83 | 238 | 0.0 | 0.0 | 0.00 | 0.12 | 0.02 | 78 | 1004.1 |
| 20260903231415 | 83 | 238 | 0.0 | 0.0 | 0.00 | 0.12 | 0.02 | 78 | 1004.1 |
| 20260903231318 | 83 | 238 | 0.0 | 1.0 | 0.00 | 0.12 | 0.02 | 78 | 1004.2 |
| 20260903231216 | 83 | 238 | 0.0 | 1.0 | 0.00 | 0.12 | 0.02 | 78 | 1004.1 |
| 20260903231114 | 83 | 238 | 0.0 | 1.0 | 0.00 | 0.12 | 0.02 | 78 | 1004.2 |
| 20260903231017 | 83 | 238 | 0.0 | 1.0 | 0.00 | 0.12 | 0.02 | 78 | 1004.1 |
| 20260903230915 | 83 | 238 | 0.0 | 1.0 | 0.00 | 0.12 | 0.02 | 78 | 1004.1 |
| 20260903230818 | 83 | 238 | 0.0 | 1.0 | 0.00 | 0.12 | 0.02 | 78 | 1004.2 |
| 20260903230717 | 83 | 238 | 0.0 | 1.0 | 0.00 | 0.12 | 0.02 | 79 | 1004.2 |
| 20260903230617 | 83 | 238 | 0.0 | 1.0 | 0.00 | 0.12 | 0.02 | 78 | 1004.1 |
| 20260903230518 | 83 | 238 | 0.0 | 1.0 | 0.00 | 0.12 | 0.02 | 78 | 1004.1 |
| 20260903230415 | 83 | 241 | 0.0 | 1.0 | 0.00 | 0.12 | 0.02 | 78 | 1004.1 |
| 20260903230318 | 83 | 13 | 0.0 | 1.0 | 0.00 | 0.12 | 0.02 | 78 | 1004.0 |
| 20260903230215 | 83 | 13 | 0.0 | 3.0 | 0.00 | 0.12 | 0.02 | 78 | 1004.1 |
| 20260903230116 | 83 | 13 | 0.0 | 3.0 | 0.00 | 0.12 | 0.02 | 78 | 1004.0 |
| 20260903230015 | 83 | 8 | 0.0 | 3.0 | 0.00 | 0.12 | 0.02 | 78 | 1004.0 |
| 20260903225915 | 83 | 8 | 0.0 | 3.0 | 0.00 | 0.12 | 0.02 | 78 | 1004.1 |
| 20260903225816 | 83 | 8 | 0.0 | 3.0 | 0.00 | 0.12 | 0.02 | 78 | 1004.1 |
| 20260903225716 | 83 | 8 | 0.0 | 3.0 | 0.00 | 0.12 | 0.02 | 78 | 1004.0 |
| 20260903225615 | 83 | 8 | 0.0 | 3.0 | 0.00 | 0.12 | 0.02 | 78 | 1004.0 |
| 20260903225518 | 83 | 8 | 0.0 | 3.0 | 0.00 | 0.12 | 0.02 | 77 | 1004.1 |
| 20260903225417 | 83 | 8 | 0.0 | 3.0 | 0.00 | 0.12 | 0.02 | 77 | 1004.0 |
| 20260903225317 | 83 | 11 | 0.0 | 3.0 | 0.00 | 0.12 | 0.02 | 77 | 1004.0 |
| 20260903225216 | 83 | 100 | 0.0 | 1.0 | 0.00 | 0.12 | 0.02 | 78 | 1004.0 |
| 20260903225116 | 83 | 102 | 0.0 | 2.0 | 0.00 | 0.12 | 0.02 | 78 | 1004.1 |
| 20260903225016 | 83 | 102 | 0.0 | 2.0 | 0.00 | 0.12 | 0.02 | 78 | 1004.0 |
| 20260903224914 | 83 | 104 | 0.0 | 2.0 | 0.00 | 0.12 | 0.02 | 78 | 1004.1 |
| 20260903224817 | 83 | 324 | 0.0 | 2.0 | 0.00 | 0.12 | 0.02 | 78 | 1004.0 |
| 20260903224714 | 83 | 329 | 0.0 | 2.0 | 0.00 | 0.12 | 0.02 | 78 | 1004.1 |
| 20260903224619 | 82 | 329 | 0.0 | 2.0 | 0.00 | 0.12 | 0.02 | 77 | 1004.1 |
| 20260903224514 | 82 | 329 | 0.0 | 2.0 | 0.00 | 0.12 | 0.02 | 77 | 1004.2 |
| 20260903224418 | 82 | 329 | 0.0 | 2.0 | 0.00 | 0.12 | 0.02 | 78 | 1004.1 |
| 20260903224315 | 82 | 313 | 0.0 | 2.0 | 0.00 | 0.12 | 0.02 | 78 | 1004.1 |
| 20260903224217 | 82 | 313 | 0.0 | 2.0 | 0.00 | 0.12 | 0.02 | 78 | 1004.1 |
| 20260903224118 | 83 | 271 | 0.0 | 2.0 | 0.00 | 0.12 | 0.02 | 78 | 1004.0 |
| 20260903224014 | 82 | 271 | 0.0 | 2.0 | 0.00 | 0.12 | 0.02 | 78 | 1004.0 |
| 20260903223917 | 82 | 268 | 0.0 | 1.0 | 0.00 | 0.12 | 0.02 | 78 | 1004.0 |
| 20260903223818 | 82 | 266 | 0.0 | 1.0 | 0.00 | 0.12 | 0.02 | 78 | 1004.1 |
| 20260903223715 | 82 | 310 | 1.0 | 1.0 | 0.00 | 0.12 | 0.02 | 78 | 1004.1 |
| 20260903223617 | 82 | 306 | 0.0 | 1.0 | 0.00 | 0.12 | 0.02 | 78 | 1004.0 |
| 20260903223514 | 82 | 340 | 0.0 | 2.0 | 0.00 | 0.12 | 0.02 | 78 | 1004.1 |
| 20260903223418 | 82 | 340 | 0.0 | 2.0 | 0.00 | 0.12 | 0.02 | 78 | 1004.0 |
| 20260903223316 | 82 | 340 | 0.0 | 2.0 | 0.00 | 0.12 | 0.02 | 78 | 1004.1 |
| 20260903223216 | 82 | 340 | 0.0 | 2.0 | 0.00 | 0.12 | 0.02 | 78 | 1004.0 |
| 20260903223115 | 82 | 340 | 0.0 | 2.0 | 0.00 | 0.12 | 0.02 | 78 | 1004.0 |
| 20260903223015 | 82 | 340 | 0.0 | 2.0 | 0.00 | 0.12 | 0.02 | 78 | 1004.0 |
| 20260903222915 | 82 | 340 | 0.0 | 2.0 | 0.00 | 0.12 | 0.02 | 79 | 1003.9 |
| 20260903222816 | 82 | 340 | 0.0 | 2.0 | 0.00 | 0.12 | 0.02 | 79 | 1004.0 |
| 20260903222715 | 82 | 340 | 0.0 | 2.0 | 0.00 | 0.12 | 0.02 | 79 | 1003.9 |
| 20260903222615 | 82 | 340 | 0.0 | 2.0 | 0.00 | 0.12 | 0.02 | 79 | 1004.0 |
| 20260903222515 | 82 | 86 | 0.0 | 2.0 | 0.00 | 0.12 | 0.02 | 79 | 1004.1 |
| 20260903222417 | 82 | 90 | 0.0 | 2.0 | 0.00 | 0.12 | 0.02 | 79 | 1004.0 |
| 20260903222315 | 82 | 90 | 0.0 | 2.0 | 0.00 | 0.12 | 0.02 | 80 | 1004.0 |
| 20260903222214 | 82 | 90 | 0.0 | 2.0 | 0.00 | 0.12 | 0.02 | 80 | 1003.9 |
| 20260903222113 | 82 | 90 | 0.0 | 2.0 | 0.00 | 0.12 | 0.02 | 80 | 1004.0 |
| 20260903222014 | 82 | 309 | 0.0 | 2.0 | 0.00 | 0.12 | 0.02 | 80 | 1004.0 |
| 20260903221907 | 81 | 309 | 0.0 | 2.0 | 0.00 | 0.12 | 0.02 | 80 | 1004.0 |
| 20260903221808 | 81 | 309 | 0.0 | 2.0 | 0.00 | 0.12 | 0.02 | 81 | 1004.0 |
| 20260903221706 | 81 | 327 | 0.0 | 0.0 | 0.00 | 0.12 | 0.02 | 81 | 1003.9 |
| 20260903221603 | 81 | 327 | 0.0 | 1.0 | 0.00 | 0.12 | 0.02 | 81 | 1004.0 |
| 20260903221504 | 80 | 327 | 0.0 | 1.0 | 0.00 | 0.12 | 0.02 | 81 | 1003.9 |
| 20260903221403 | 80 | 327 | 0.0 | 1.0 | 0.00 | 0.12 | 0.02 | 81 | 1004.0 |
| 20260903221304 | 80 | 327 | 0.0 | 1.0 | 0.00 | 0.12 | 0.02 | 81 | 1004.1 |
| 20260903221203 | 80 | 331 | 0.0 | 1.0 | 0.00 | 0.12 | 0.02 | 81 | 1004.0 |
| 20260903221104 | 80 | 327 | 0.0 | 1.0 | 0.00 | 0.12 | 0.02 | 81 | 1004.0 |
| 20260903221005 | 80 | 327 | 0.0 | 1.0 | 0.00 | 0.12 | 0.02 | 81 | 1004.0 |
| 20260903220904 | 80 | 327 | 0.0 | 1.0 | 0.00 | 0.12 | 0.02 | 81 | 1004.1 |
| 20260903220802 | 80 | 327 | 0.0 | 1.0 | 0.00 | 0.12 | 0.02 | 82 | 1004.1 |
| 20260903220702 | 80 | 327 | 0.0 | 1.0 | 0.00 | 0.12 | 0.02 | 82 | 1004.1 |
| 20260903220603 | 80 | 333 | 0.0 | 1.0 | 0.00 | 0.12 | 0.02 | 82 | 1004.1 |
| 20260903220503 | 80 | 333 | 0.0 | 1.0 | 0.00 | 0.12 | 0.02 | 82 | 1004.2 |
| 20260903220402 | 80 | 333 | 0.0 | 1.0 | 0.00 | 0.12 | 0.02 | 82 | 1004.1 |
| 20260903220302 | 80 | 202 | 0.0 | 1.0 | 0.00 | 0.12 | 0.02 | 82 | 1004.2 |
| 20260903220203 | 80 | 202 | 0.0 | 1.0 | 0.00 | 0.12 | 0.02 | 82 | 1004.2 |
| 20260903220002 | 80 | 202 | 0.0 | 1.0 | 0.00 | 0.12 | 0.02 | 82 | 1004.2 |
| 20260903215902 | 80 | 202 | 0.0 | 1.0 | 0.00 | 0.12 | 0.02 | 82 | 1004.2 |
| 20260903215803 | 80 | 202 | 0.0 | 1.0 | 0.00 | 0.12 | 0.02 | 82 | 1004.2 |
| 20260903215703 | 80 | 202 | 0.0 | 1.0 | 0.00 | 0.12 | 0.02 | 82 | 1004.2 |
| 20260903215602 | 80 | 202 | 0.0 | 1.0 | 0.00 | 0.12 | 0.02 | 82 | 1004.2 |
| 20260903215502 | 80 | 202 | 0.0 | 1.0 | 0.00 | 0.12 | 0.02 | 82 | 1004.2 |
| 20260903215403 | 80 | 199 | 0.0 | 1.0 | 0.00 | 0.12 | 0.02 | 82 | 1004.3 |
| 20260903215306 | 80 | 200 | 0.0 | 1.0 | 0.00 | 0.12 | 0.02 | 82 | 1004.3 |
| 20260903215204 | 80 | 203 | 0.0 | 1.0 | 0.00 | 0.12 | 0.02 | 82 | 1004.3 |
| 20260903215107 | 80 | 203 | 0.0 | 1.0 | 0.00 | 0.12 | 0.02 | 82 | 1004.2 |
| 20260903215002 | 80 | 203 | 0.0 | 1.0 | 0.00 | 0.12 | 0.02 | 82 | 1004.4 |
| 20260903214903 | 80 | 203 | 0.0 | 1.0 | 0.00 | 0.12 | 0.02 | 82 | 1004.3 |
| 20260903214802 | 80 | 203 | 0.0 | 1.0 | 0.00 | 0.12 | 0.02 | 82 | 1004.4 |
| 20260903214703 | 80 | 203 | 0.0 | 1.0 | 0.00 | 0.12 | 0.02 | 82 | 1004.4 |
| 20260903214602 | 80 | 203 | 0.0 | 1.0 | 0.00 | 0.12 | 0.02 | 82 | 1004.4 |
| 20260903214504 | 80 | 203 | 0.0 | 0.0 | 0.00 | 0.12 | 0.02 | 82 | 1004.5 |
| 20260903214402 | 80 | 203 | 0.0 | 0.0 | 0.00 | 0.12 | 0.02 | 82 | 1004.5 |
| 20260903214303 | 80 | 203 | 0.0 | 0.0 | 0.00 | 0.12 | 0.02 | 82 | 1004.5 |
| 20260903214202 | 80 | 203 | 0.0 | 0.0 | 0.00 | 0.12 | 0.02 | 82 | 1004.6 |
| 20260903214103 | 80 | 203 | 0.0 | 1.0 | 0.00 | 0.12 | 0.02 | 82 | 1004.6 |
| 20260903214003 | 80 | 203 | 0.0 | 1.0 | 0.00 | 0.12 | 0.02 | 82 | 1004.6 |
| 20260903213902 | 80 | 203 | 0.0 | 1.0 | 0.00 | 0.12 | 0.02 | 82 | 1004.7 |
| 20260903213802 | 80 | 203 | 0.0 | 1.0 | 0.00 | 0.12 | 0.02 | 82 | 1004.7 |
| 20260903213702 | 80 | 203 | 0.0 | 1.0 | 0.00 | 0.12 | 0.02 | 82 | 1004.7 |
| 20260903213603 | 80 | 203 | 0.0 | 1.0 | 0.00 | 0.12 | 0.02 | 82 | 1004.7 |
| 20260903213504 | 80 | 203 | 0.0 | 1.0 | 0.00 | 0.12 | 0.02 | 82 | 1004.7 |
| 20260903213405 | 80 | 203 | 0.0 | 1.0 | 0.00 | 0.12 | 0.02 | 82 | 1004.8 |
| 20260903213304 | 80 | 203 | 0.0 | 1.0 | 0.00 | 0.12 | 0.02 | 82 | 1004.8 |
| 20260903213203 | 80 | 202 | 0.0 | 1.0 | 0.00 | 0.12 | 0.02 | 82 | 1004.8 |
| 20260903213103 | 80 | 202 | 0.0 | 1.0 | 0.00 | 0.12 | 0.02 | 82 | 1004.7 |
| 20260903213002 | 80 | 202 | 0.0 | 1.0 | 0.00 | 0.12 | 0.02 | 82 | 1004.9 |
| 20260903212904 | 80 | 202 | 0.0 | 1.0 | 0.00 | 0.12 | 0.02 | 82 | 1004.8 |
| 20260903212803 | 80 | 202 | 0.0 | 1.0 | 0.00 | 0.12 | 0.02 | 82 | 1004.8 |
| 20260903212706 | 80 | 202 | 0.0 | 1.0 | 0.00 | 0.12 | 0.02 | 83 | 1004.8 |
| 20260903212605 | 80 | 202 | 0.0 | 1.0 | 0.00 | 0.12 | 0.02 | 83 | 1004.8 |
| 20260903212503 | 80 | 202 | 0.0 | 1.0 | 0.00 | 0.12 | 0.02 | 83 | 1004.9 |
| 20260903212403 | 80 | 202 | 0.0 | 1.0 | 0.00 | 0.12 | 0.02 | 83 | 1004.9 |
| 20260903212302 | 80 | 0 | 0.0 | 1.0 | 0.00 | 0.12 | 0.02 | 83 | 1005.0 |
| 20260903212204 | 80 | 0 | 0.0 | 1.0 | 0.00 | 0.12 | 0.02 | 83 | 1004.9 |
| 20260903212104 | 80 | 0 | 0.0 | 1.0 | 0.00 | 0.12 | 0.02 | 83 | 1004.9 |
| 20260903212002 | 80 | 0 | 0.0 | 1.0 | 0.00 | 0.12 | 0.02 | 83 | 1004.9 |
| 20260903211904 | 80 | 0 | 0.0 | 1.0 | 0.00 | 0.12 | 0.02 | 83 | 1004.8 |
| 20260903211803 | 80 | 0 | 0.0 | 1.0 | 0.00 | 0.12 | 0.02 | 83 | 1004.9 |
| 20260903211705 | 80 | 0 | 0.0 | 1.0 | 0.00 | 0.12 | 0.02 | 83 | 1004.9 |
| 20260903211602 | 80 | 0 | 0.0 | 1.0 | 0.00 | 0.12 | 0.02 | 83 | 1004.9 |
| 20260903211502 | 80 | 307 | 0.0 | 1.0 | 0.00 | 0.12 | 0.02 | 83 | 1004.9 |
| 20260903211403 | 80 | 307 | 0.0 | 1.0 | 0.00 | 0.12 | 0.02 | 83 | 1005.0 |
| 20260903211305 | 80 | 307 | 0.0 | 1.0 | 0.00 | 0.12 | 0.02 | 83 | 1005.0 |
| 20260903211202 | 80 | 307 | 0.0 | 1.0 | 0.00 | 0.12 | 0.02 | 83 | 1005.0 |
| 20260903211103 | 80 | 307 | 0.0 | 1.0 | 0.00 | 0.12 | 0.02 | 83 | 1005.0 |
| 20260903211002 | 80 | 307 | 0.0 | 1.0 | 0.00 | 0.12 | 0.02 | 83 | 1005.0 |
| 20260903210903 | 80 | 307 | 0.0 | 1.0 | 0.00 | 0.12 | 0.02 | 83 | 1005.0 |
| 20260903210804 | 80 | 307 | 0.0 | 1.0 | 0.00 | 0.12 | 0.02 | 83 | 1005.0 |
| 20260903210703 | 80 | 307 | 0.0 | 1.0 | 0.00 | 0.12 | 0.02 | 83 | 1005.0 |
| 20260903210604 | 80 | 307 | 0.0 | 1.0 | 0.00 | 0.12 | 0.02 | 83 | 1005.0 |
| 20260903210506 | 80 | 307 | 0.0 | 1.0 | 0.00 | 0.12 | 0.02 | 83 | 1005.0 |
| 20260903210402 | 80 | 307 | 0.0 | 1.0 | 0.00 | 0.12 | 0.02 | 83 | 1005.1 |
| 20260903210303 | 80 | 307 | 0.0 | 1.0 | 0.00 | 0.12 | 0.02 | 83 | 1005.0 |
| 20260903210206 | 80 | 321 | 0.0 | 0.0 | 0.00 | 0.12 | 0.02 | 83 | 1005.1 |
| 20260903210106 | 80 | 321 | 0.0 | 1.0 | 0.00 | 0.12 | 0.02 | 83 | 1005.1 |
| 20260903210003 | 80 | 321 | 0.0 | 1.0 | 0.00 | 0.12 | 0.02 | 83 | 1005.1 |
| 20260903205904 | 80 | 321 | 0.0 | 1.0 | 0.00 | 0.12 | 0.02 | 83 | 1005.1 |
| 20260903205803 | 80 | 321 | 0.0 | 1.0 | 0.00 | 0.12 | 0.02 | 83 | 1005.1 |
| 20260903205702 | 80 | 321 | 0.0 | 1.0 | 0.00 | 0.12 | 0.02 | 83 | 1005.0 |
| 20260903205604 | 80 | 321 | 0.0 | 1.0 | 0.00 | 0.12 | 0.02 | 83 | 1005.0 |
| 20260903205503 | 80 | 321 | 0.0 | 1.0 | 0.00 | 0.12 | 0.02 | 83 | 1005.0 |
| 20260903205400 | 80 | 321 | 0.0 | 1.0 | 0.00 | 0.12 | 0.02 | 83 | 1005.1 |
| 20260903205302 | 80 | 321 | 0.0 | 1.0 | 0.00 | 0.12 | 0.02 | 83 | 1005.1 |
| 20260903205158 | 80 | 321 | 0.0 | 1.0 | 0.00 | 0.12 | 0.02 | 83 | 1005.0 |
| 20260903205053 | 80 | 65 | 0.0 | 1.0 | 0.00 | 0.12 | 0.02 | 83 | 1005.0 |
| 20260903204939 | 80 | 63 | 0.0 | 1.0 | 0.00 | 0.12 | 0.02 | 83 | 1004.9 |
| 20260903204836 | 80 | 52 | 0.0 | 1.0 | 0.00 | 0.12 | 0.02 | 83 | 1005.1 |
| 20260903204732 | 80 | 56 | 0.0 | 1.0 | 0.00 | 0.12 | 0.02 | 83 | 1005.1 |
| 20260903204630 | 80 | 54 | 0.0 | 1.0 | 0.00 | 0.12 | 0.02 | 84 | 1005.1 |
| 20260903204523 | 80 | 55 | 0.0 | 1.0 | 0.00 | 0.12 | 0.02 | 84 | 1005.1 |
| 20260903204418 | 80 | 55 | 0.0 | 1.0 | 0.00 | 0.12 | 0.02 | 84 | 1005.1 |
| 20260903204315 | 80 | 55 | 0.0 | 1.0 | 0.00 | 0.12 | 0.02 | 84 | 1005.1 |
| 20260903204214 | 80 | 52 | 0.0 | 0.0 | 0.00 | 0.12 | 0.02 | 84 | 1005.1 |
| 20260903204111 | 80 | 52 | 0.0 | 0.0 | 0.00 | 0.12 | 0.02 | 84 | 1005.2 |
| 20260903204011 | 80 | 52 | 0.0 | 0.0 | 0.00 | 0.12 | 0.02 | 84 | 1005.2 |
| 20260903203915 | 80 | 52 | 0.0 | 0.0 | 0.00 | 0.12 | 0.02 | 84 | 1005.2 |
| 20260903203812 | 80 | 52 | 0.0 | 0.0 | 0.00 | 0.12 | 0.02 | 84 | 1005.2 |
| 20260903203712 | 80 | 52 | 0.0 | 0.0 | 0.00 | 0.12 | 0.02 | 84 | 1005.3 |
| 20260903203611 | 80 | 54 | 0.0 | 0.0 | 0.00 | 0.12 | 0.02 | 84 | 1005.2 |
| 20260903203511 | 80 | 52 | 0.0 | 0.0 | 0.00 | 0.12 | 0.02 | 83 | 1005.1 |
| 20260903203413 | 80 | 52 | 0.0 | 0.0 | 0.00 | 0.12 | 0.02 | 83 | 1005.1 |
| 20260903203312 | 80 | 52 | 0.0 | 0.0 | 0.00 | 0.12 | 0.02 | 83 | 1005.1 |
| 20260903203211 | 80 | 52 | 0.0 | 0.0 | 0.00 | 0.12 | 0.02 | 83 | 1005.1 |
| 20260903203112 | 80 | 52 | 0.0 | 0.0 | 0.00 | 0.12 | 0.02 | 83 | 1005.2 |
| 20260903203013 | 80 | 52 | 0.0 | 0.0 | 0.00 | 0.12 | 0.02 | 83 | 1005.1 |
| 20260903202912 | 80 | 52 | 0.0 | 0.0 | 0.00 | 0.12 | 0.02 | 83 | 1005.1 |
| 20260903202813 | 80 | 52 | 0.0 | 0.0 | 0.00 | 0.12 | 0.02 | 83 | 1005.1 |
| 20260903202712 | 80 | 52 | 0.0 | 0.0 | 0.00 | 0.12 | 0.02 | 83 | 1005.2 |
| 20260903202611 | 80 | 52 | 0.0 | 0.0 | 0.00 | 0.12 | 0.02 | 83 | 1005.1 |
| 20260903202514 | 80 | 52 | 0.0 | 0.0 | 0.00 | 0.12 | 0.02 | 83 | 1005.1 |
| 20260903202412 | 80 | 52 | 0.0 | 0.0 | 0.00 | 0.12 | 0.02 | 83 | 1005.2 |
| 20260903202311 | 80 | 54 | 0.0 | 0.0 | 0.00 | 0.12 | 0.02 | 83 | 1005.2 |
| 20260903202212 | 80 | 52 | 0.0 | 0.0 | 0.00 | 0.12 | 0.02 | 83 | 1005.2 |
| 20260903202114 | 80 | 52 | 0.0 | 0.0 | 0.00 | 0.12 | 0.02 | 83 | 1005.2 |
| 20260903202012 | 80 | 52 | 0.0 | 0.0 | 0.00 | 0.12 | 0.02 | 83 | 1005.1 |
| 20260903201911 | 80 | 52 | 0.0 | 0.0 | 0.00 | 0.12 | 0.02 | 83 | 1005.1 |
| 20260903201816 | 80 | 52 | 0.0 | 0.0 | 0.00 | 0.12 | 0.02 | 83 | 1005.1 |
| 20260903201711 | 80 | 52 | 0.0 | 0.0 | 0.00 | 0.12 | 0.02 | 83 | 1005.0 |
| 20260903201613 | 80 | 52 | 0.0 | 0.0 | 0.00 | 0.12 | 0.02 | 83 | 1005.1 |
| 20260903201513 | 80 | 52 | 0.0 | 0.0 | 0.00 | 0.12 | 0.02 | 83 | 1005.0 |
| 20260903201412 | 80 | 52 | 0.0 | 0.0 | 0.00 | 0.12 | 0.02 | 83 | 1005.0 |
| 20260903201313 | 80 | 52 | 0.0 | 0.0 | 0.00 | 0.12 | 0.02 | 83 | 1005.0 |
| 20260903201211 | 80 | 52 | 0.0 | 0.0 | 0.00 | 0.12 | 0.02 | 83 | 1004.9 |
| 20260903201112 | 80 | 52 | 0.0 | 0.0 | 0.00 | 0.12 | 0.02 | 83 | 1005.0 |
| 20260903201011 | 80 | 52 | 0.0 | 0.0 | 0.00 | 0.12 | 0.02 | 83 | 1005.0 |
| 20260903200913 | 80 | 52 | 0.0 | 0.0 | 0.00 | 0.12 | 0.02 | 83 | 1005.0 |
| 20260903200812 | 80 | 52 | 0.0 | 0.0 | 0.00 | 0.12 | 0.02 | 83 | 1005.0 |
| 20260903200712 | 80 | 52 | 0.0 | 0.0 | 0.00 | 0.12 | 0.02 | 83 | 1005.1 |
| 20260903200612 | 80 | 52 | 0.0 | 0.0 | 0.00 | 0.12 | 0.02 | 83 | 1005.1 |
| 20260903200511 | 80 | 52 | 0.0 | 0.0 | 0.00 | 0.12 | 0.02 | 82 | 1005.1 |
| 20260903200411 | 80 | 52 | 0.0 | 0.0 | 0.00 | 0.12 | 0.02 | 82 | 1005.2 |
| 20260903200315 | 80 | 52 | 0.0 | 0.0 | 0.00 | 0.12 | 0.02 | 82 | 1005.1 |
| 20260903200211 | 80 | 52 | 0.0 | 0.0 | 0.00 | 0.12 | 0.02 | 82 | 1005.2 |
| 20260903200111 | 80 | 52 | 0.0 | 0.0 | 0.00 | 0.12 | 0.02 | 82 | 1005.1 |
| 20260903200013 | 80 | 52 | 0.0 | 0.0 | 0.00 | 0.12 | 0.02 | 82 | 1005.1 |
| 20260903195910 | 80 | 52 | 0.0 | 0.0 | 0.00 | 0.12 | 0.02 | 82 | 1005.2 |
| 20260903195812 | 80 | 52 | 0.0 | 0.0 | 0.00 | 0.12 | 0.02 | 82 | 1005.2 |
| 20260903195711 | 80 | 52 | 0.0 | 0.0 | 0.00 | 0.12 | 0.02 | 82 | 1005.2 |
| 20260903195611 | 80 | 52 | 0.0 | 0.0 | 0.00 | 0.12 | 0.02 | 82 | 1005.2 |
| 20260903195513 | 80 | 52 | 0.0 | 0.0 | 0.00 | 0.12 | 0.02 | 82 | 1005.3 |
| 20260903195411 | 80 | 52 | 0.0 | 0.0 | 0.00 | 0.12 | 0.02 | 82 | 1005.3 |
| 20260903195312 | 80 | 52 | 0.0 | 0.0 | 0.00 | 0.12 | 0.02 | 82 | 1005.3 |
| 20260903195211 | 80 | 52 | 0.0 | 0.0 | 0.00 | 0.12 | 0.02 | 82 | 1005.2 |
| 20260903195111 | 80 | 52 | 0.0 | 0.0 | 0.00 | 0.12 | 0.02 | 82 | 1005.2 |
| 20260903195012 | 80 | 52 | 0.0 | 0.0 | 0.00 | 0.12 | 0.02 | 82 | 1005.1 |
| 20260903194911 | 80 | 52 | 0.0 | 0.0 | 0.00 | 0.12 | 0.02 | 81 | 1005.1 |
| 20260903194811 | 80 | 52 | 0.0 | 0.0 | 0.00 | 0.12 | 0.02 | 81 | 1005.1 |
| 20260903194712 | 80 | 52 | 0.0 | 0.0 | 0.00 | 0.12 | 0.02 | 81 | 1005.1 |
| 20260903194610 | 80 | 52 | 0.0 | 0.0 | 0.00 | 0.12 | 0.02 | 81 | 1005.1 |
| 20260903194511 | 80 | 52 | 0.0 | 0.0 | 0.00 | 0.12 | 0.02 | 81 | 1005.1 |
| 20260903194411 | 80 | 52 | 0.0 | 0.0 | 0.00 | 0.12 | 0.02 | 81 | 1005.2 |
| 20260903194311 | 80 | 52 | 0.0 | 0.0 | 0.00 | 0.12 | 0.02 | 81 | 1005.1 |
| 20260903194210 | 80 | 52 | 0.0 | 0.0 | 0.00 | 0.12 | 0.02 | 81 | 1005.2 |
| 20260903194111 | 80 | 52 | 0.0 | 0.0 | 0.00 | 0.12 | 0.02 | 81 | 1005.2 |
| 20260903194012 | 80 | 52 | 0.0 | 0.0 | 0.00 | 0.12 | 0.02 | 81 | 1005.2 |
| 20260903193911 | 80 | 52 | 0.0 | 0.0 | 0.00 | 0.12 | 0.02 | 81 | 1005.2 |
| 20260903193812 | 80 | 52 | 0.0 | 0.0 | 0.00 | 0.12 | 0.02 | 81 | 1005.2 |
| 20260903193711 | 80 | 52 | 0.0 | 0.0 | 0.00 | 0.12 | 0.02 | 81 | 1005.2 |
| 20260903193612 | 80 | 52 | 0.0 | 1.0 | 0.00 | 0.12 | 0.02 | 81 | 1005.2 |
| 20260903193512 | 80 | 52 | 0.0 | 1.0 | 0.00 | 0.12 | 0.02 | 81 | 1005.3 |
| 20260903193410 | 80 | 52 | 0.0 | 1.0 | 0.00 | 0.12 | 0.02 | 81 | 1005.3 |
| 20260903193310 | 80 | 52 | 0.0 | 1.0 | 0.00 | 0.12 | 0.02 | 81 | 1005.3 |
| 20260903193212 | 80 | 52 | 0.0 | 1.0 | 0.00 | 0.12 | 0.02 | 81 | 1005.4 |
| 20260903193110 | 80 | 52 | 0.0 | 1.0 | 0.00 | 0.12 | 0.02 | 81 | 1005.3 |
| 20260903193011 | 80 | 52 | 0.0 | 1.0 | 0.00 | 0.12 | 0.02 | 81 | 1005.4 |
| 20260903192909 | 80 | 55 | 0.0 | 1.0 | 0.00 | 0.12 | 0.02 | 80 | 1005.4 |
| 20260903192813 | 80 | 55 | 0.0 | 1.0 | 0.00 | 0.12 | 0.02 | 80 | 1005.4 |
| 20260903192710 | 80 | 62 | 0.0 | 1.0 | 0.00 | 0.12 | 0.02 | 80 | 1005.5 |
| 20260903192610 | 80 | 310 | 0.0 | 1.0 | 0.00 | 0.12 | 0.02 | 80 | 1005.6 |
| 20260903192510 | 80 | 310 | 0.0 | 1.0 | 0.00 | 0.12 | 0.02 | 80 | 1005.6 |
| 20260903192413 | 80 | 310 | 0.0 | 1.0 | 0.00 | 0.12 | 0.02 | 80 | 1005.7 |
| 20260903192313 | 80 | 310 | 0.0 | 1.0 | 0.00 | 0.12 | 0.02 | 80 | 1005.7 |
| 20260903192210 | 80 | 305 | 0.0 | 1.0 | 0.00 | 0.12 | 0.02 | 80 | 1005.9 |
| 20260903192110 | 80 | 305 | 0.0 | 1.0 | 0.00 | 0.12 | 0.02 | 80 | 1005.9 |
| 20260903192012 | 80 | 305 | 0.0 | 1.0 | 0.00 | 0.12 | 0.02 | 80 | 1005.9 |
| 20260903191913 | 80 | 305 | 0.0 | 1.0 | 0.00 | 0.12 | 0.02 | 79 | 1006.0 |
| 20260903191809 | 80 | 305 | 0.0 | 1.0 | 0.00 | 0.12 | 0.02 | 79 | 1006.1 |
| 20260903191710 | 80 | 305 | 0.0 | 2.0 | 0.00 | 0.12 | 0.02 | 79 | 1006.0 |
| 20260903191611 | 80 | 305 | 0.0 | 2.0 | 0.00 | 0.12 | 0.02 | 79 | 1006.1 |
| 20260903191509 | 81 | 305 | 0.0 | 2.0 | 0.00 | 0.12 | 0.02 | 79 | 1006.1 |
| 20260903191412 | 81 | 305 | 0.0 | 2.0 | 0.00 | 0.12 | 0.02 | 79 | 1006.0 |
| 20260903191312 | 81 | 305 | 0.0 | 2.0 | 0.00 | 0.12 | 0.02 | 79 | 1006.1 |
| 20260903191210 | 81 | 305 | 0.0 | 2.0 | 0.00 | 0.12 | 0.02 | 78 | 1006.0 |
| 20260903191109 | 81 | 303 | 0.0 | 2.0 | 0.00 | 0.12 | 0.02 | 78 | 1006.0 |
| 20260903191005 | 81 | 303 | 0.0 | 2.0 | 0.00 | 0.12 | 0.02 | 78 | 1005.8 |
| 20260903190904 | 81 | 303 | 0.0 | 2.0 | 0.00 | 0.12 | 0.02 | 78 | 1005.8 |
| 20260903190801 | 81 | 303 | 0.0 | 2.0 | 0.00 | 0.12 | 0.02 | 78 | 1005.8 |
| 20260903190703 | 81 | 333 | 0.0 | 2.0 | 0.00 | 0.12 | 0.02 | 78 | 1005.8 |
| 20260903190604 | 81 | 333 | 0.0 | 2.0 | 0.00 | 0.12 | 0.02 | 78 | 1005.8 |
| 20260903190502 | 81 | 334 | 0.0 | 2.0 | 0.00 | 0.12 | 0.02 | 78 | 1005.8 |
| 20260903190403 | 81 | 334 | 0.0 | 2.0 | 0.00 | 0.12 | 0.02 | 78 | 1005.8 |
| 20260903190306 | 81 | 334 | 0.0 | 2.0 | 0.00 | 0.12 | 0.02 | 78 | 1005.8 |
| 20260903190203 | 81 | 334 | 0.0 | 2.0 | 0.00 | 0.12 | 0.02 | 78 | 1005.9 |
| 20260903190103 | 81 | 334 | 0.0 | 2.0 | 0.00 | 0.12 | 0.02 | 78 | 1005.8 |
| 20260903190002 | 81 | 330 | 0.0 | 2.0 | 0.00 | 0.12 | 0.02 | 78 | 1005.9 |
| 20260903185902 | 81 | 330 | 0.0 | 2.0 | 0.00 | 0.12 | 0.02 | 78 | 1005.8 |
| 20260903185804 | 81 | 110 | 0.0 | 1.0 | 0.00 | 0.12 | 0.02 | 77 | 1005.8 |
| 20260903185702 | 81 | 110 | 0.0 | 2.0 | 0.00 | 0.12 | 0.02 | 77 | 1005.8 |
| 20260903185602 | 81 | 110 | 0.0 | 2.0 | 0.00 | 0.12 | 0.02 | 77 | 1005.8 |
| 20260903185502 | 81 | 110 | 0.0 | 2.0 | 0.00 | 0.12 | 0.02 | 77 | 1005.7 |
| 20260903185403 | 82 | 110 | 0.0 | 2.0 | 0.00 | 0.12 | 0.02 | 77 | 1005.7 |
| 20260903185306 | 82 | 110 | 0.0 | 2.0 | 0.00 | 0.12 | 0.02 | 77 | 1005.8 |
| 20260903185202 | 82 | 110 | 0.0 | 2.0 | 0.00 | 0.12 | 0.02 | 77 | 1005.7 |
| 20260903185103 | 82 | 110 | 0.0 | 2.0 | 0.00 | 0.12 | 0.02 | 77 | 1005.8 |
| 20260903185002 | 82 | 221 | 0.0 | 2.0 | 0.00 | 0.12 | 0.02 | 77 | 1005.8 |
| 20260903184903 | 82 | 227 | 0.0 | 2.0 | 0.00 | 0.12 | 0.02 | 77 | 1005.8 |
| 20260903184804 | 82 | 227 | 0.0 | 2.0 | 0.00 | 0.12 | 0.02 | 77 | 1005.9 |
| 20260903184703 | 82 | 58 | 0.0 | 2.0 | 0.00 | 0.12 | 0.02 | 77 | 1006.0 |
| 20260903184604 | 82 | 42 | 1.0 | 2.0 | 0.00 | 0.12 | 0.02 | 77 | 1005.9 |
| 20260903184504 | 82 | 59 | 0.0 | 2.0 | 0.00 | 0.12 | 0.02 | 77 | 1006.0 |
| 20260903184404 | 82 | 0 | 0.0 | 2.0 | 0.00 | 0.12 | 0.02 | 77 | 1006.1 |
| 20260903184302 | 82 | 0 | 0.0 | 2.0 | 0.00 | 0.12 | 0.02 | 77 | 1006.0 |
| 20260903184203 | 82 | 0 | 0.0 | 2.0 | 0.00 | 0.12 | 0.02 | 76 | 1006.1 |
| 20260903184105 | 82 | 6 | 0.0 | 2.0 | 0.00 | 0.12 | 0.02 | 76 | 1006.1 |
| 20260903184002 | 82 | 21 | 0.0 | 2.0 | 0.00 | 0.12 | 0.02 | 76 | 1006.1 |
| 20260903183902 | 82 | 312 | 0.0 | 1.0 | 0.00 | 0.12 | 0.02 | 76 | 1006.1 |
| 20260903183802 | 83 | 137 | 0.0 | 0.0 | 0.00 | 0.12 | 0.02 | 76 | 1006.1 |
| 20260903183705 | 83 | 138 | 0.0 | 0.0 | 0.00 | 0.12 | 0.02 | 76 | 1006.0 |
| 20260903183605 | 83 | 103 | 0.0 | 0.0 | 0.00 | 0.12 | 0.02 | 76 | 1005.9 |
| 20260903183502 | 83 | 103 | 0.0 | 1.0 | 0.00 | 0.12 | 0.02 | 76 | 1005.9 |
| 20260903183402 | 83 | 103 | 0.0 | 2.0 | 0.00 | 0.12 | 0.02 | 76 | 1005.9 |
| 20260903183303 | 83 | 103 | 0.0 | 2.0 | 0.00 | 0.12 | 0.02 | 76 | 1005.9 |
| 20260903183205 | 83 | 103 | 0.0 | 2.0 | 0.00 | 0.12 | 0.02 | 76 | 1005.8 |
| 20260903183103 | 83 | 103 | 0.0 | 2.0 | 0.00 | 0.12 | 0.02 | 76 | 1005.9 |
| 20260903183002 | 83 | 103 | 0.0 | 3.0 | 0.00 | 0.12 | 0.02 | 76 | 1005.8 |
| 20260903182903 | 83 | 103 | 0.0 | 3.0 | 0.00 | 0.12 | 0.02 | 76 | 1005.9 |
| 20260903182802 | 83 | 103 | 0.0 | 3.0 | 0.00 | 0.12 | 0.02 | 76 | 1006.0 |
| 20260903182703 | 83 | 103 | 0.0 | 3.0 | 0.00 | 0.12 | 0.02 | 76 | 1006.0 |
| 20260903182603 | 83 | 103 | 0.0 | 3.0 | 0.00 | 0.12 | 0.02 | 76 | 1006.1 |
| 20260903182505 | 83 | 103 | 0.0 | 3.0 | 0.00 | 0.12 | 0.02 | 76 | 1006.1 |
| 20260903182404 | 83 | 102 | 0.0 | 3.0 | 0.00 | 0.12 | 0.02 | 76 | 1006.1 |
| 20260903182306 | 83 | 61 | 0.0 | 3.0 | 0.00 | 0.12 | 0.02 | 76 | 1006.2 |
| 20260903182202 | 83 | 61 | 0.0 | 3.0 | 0.00 | 0.12 | 0.02 | 76 | 1006.1 |
| 20260903182102 | 83 | 69 | 0.0 | 3.0 | 0.00 | 0.12 | 0.02 | 77 | 1006.2 |